Time,TemperatureF,DewpointF,PressureIn,WindDirection,WindDirectionDegrees,WindSpeedMPH,WindSpeedGustMPH,Humidity,HourlyPrecipIn,Conditions,Clouds,dailyrainin,SoftwareType,DateUTC
2013-12-26 00:00:00,21.4,12.5,30.37,SW,233,2.0,2.0,68,0.00,,,0.00,Wunderground v.1.12,2013-12-26 05:00:00,
2013-12-26 00:01:00,21.4,12.5,30.37,SSW,210,1.0,2.0,68,0.00,,,0.00,Wunderground v.1.12,2013-12-26 05:01:00,
2013-12-26 00:02:00,21.4,12.5,30.37,South,188,1.0,3.0,68,0.00,,,0.00,Wunderground v.1.12,2013-12-26 05:02:00,
2013-12-26 00:06:00,21.5,12.2,30.37,WSW,257,3.0,3.0,67,0.00,,,0.00,Wunderground v.1.12,2013-12-26 05:06:00,
2013-12-26 00:07:00,21.5,12.2,30.37,SE,131,0.0,3.0,67,0.00,,,0.00,Wunderground v.1.12,2013-12-26 05:07:00,
2013-12-26 00:08:00,21.5,12.6,30.37,SW,235,2.0,3.0,68,0.00,,,0.00,Wunderground v.1.12,2013-12-26 05:08:00,
2013-12-26 00:11:00,21.5,12.6,30.37,WSW,253,0.0,2.0,68,0.00,,,0.00,Wunderground v.1.12,2013-12-26 05:11:00,
2013-12-26 00:12:00,21.5,12.6,30.37,SE,127,0.0,2.0,68,0.00,,,0.00,Wunderground v.1.12,2013-12-26 05:12:00,
2013-12-26 00:13:00,21.5,12.6,30.37,South,179,0.0,2.0,68,0.00,,,0.00,Wunderground v.1.12,2013-12-26 05:13:00,
2013-12-26 00:16:00,21.5,12.6,30.36,SW,228,0.0,1.0,68,0.00,,,0.00,Wunderground v.1.12,2013-12-26 05:16:00,
2013-12-26 00:17:00,21.5,12.6,30.36,SW,228,0.0,1.0,68,0.00,,,0.00,Wunderground v.1.12,2013-12-26 05:17:00,
2013-12-26 00:18:00,21.6,13.0,30.36,South,177,1.0,2.0,69,0.00,,,0.00,Wunderground v.1.12,2013-12-26 05:18:00,
2013-12-26 00:21:00,21.6,13.3,30.36,SSE,168,0.0,1.0,70,0.00,,,0.00,Wunderground v.1.12,2013-12-26 05:21:00,
2013-12-26 00:22:00,21.6,13.3,30.36,SSE,167,0.0,1.0,70,0.00,,,0.00,Wunderground v.1.12,2013-12-26 05:22:00,
2013-12-26 00:23:00,21.6,13.3,30.36,South,173,0.0,1.0,70,0.00,,,0.00,Wunderground v.1.12,2013-12-26 05:23:00,
2013-12-26 00:26:00,21.6,13.3,30.36,WSW,248,0.0,1.0,70,0.00,,,0.00,Wunderground v.1.12,2013-12-26 05:26:00,
2013-12-26 00:27:00,21.6,13.3,30.36,WSW,245,0.0,1.0,70,0.00,,,0.00,Wunderground v.1.12,2013-12-26 05:27:00,
2013-12-26 00:29:00,21.6,13.0,30.36,WSW,239,0.0,1.0,69,0.00,,,0.00,Wunderground v.1.12,2013-12-26 05:29:00,
2013-12-26 00:32:00,21.6,13.0,30.35,West,260,3.0,3.0,69,0.00,,,0.00,Wunderground v.1.12,2013-12-26 05:32:00,
2013-12-26 00:33:00,21.6,13.0,30.35,WSW,240,0.0,3.0,69,0.00,,,0.00,Wunderground v.1.12,2013-12-26 05:33:00,
2013-12-26 00:34:00,21.7,13.1,30.35,SE,139,0.0,3.0,69,0.00,,,0.00,Wunderground v.1.12,2013-12-26 05:34:00,
2013-12-26 00:37:00,21.6,13.0,30.35,SW,235,0.0,2.0,69,0.00,,,0.00,Wunderground v.1.12,2013-12-26 05:37:00,
2013-12-26 00:38:00,21.6,13.0,30.35,WSW,239,1.0,3.0,69,0.00,,,0.00,Wunderground v.1.12,2013-12-26 05:38:00,
2013-12-26 00:39:00,21.6,12.7,30.35,SW,228,0.0,3.0,68,0.00,,,0.00,Wunderground v.1.12,2013-12-26 05:39:00,
2013-12-26 00:42:00,21.7,12.8,30.35,SSE,153,0.0,2.0,68,0.00,,,0.00,Wunderground v.1.12,2013-12-26 05:42:00,
2013-12-26 00:43:00,21.7,12.8,30.35,SSE,153,0.0,2.0,68,0.00,,,0.00,Wunderground v.1.12,2013-12-26 05:43:00,
2013-12-26 00:44:00,21.7,12.8,30.35,SSE,154,0.0,2.0,68,0.00,,,0.00,Wunderground v.1.12,2013-12-26 05:44:00,
2013-12-26 00:47:00,21.7,13.1,30.36,SSE,153,0.0,0.0,69,0.00,,,0.00,Wunderground v.1.12,2013-12-26 05:47:00,
2013-12-26 00:48:00,21.7,13.1,30.36,SSE,153,0.0,0.0,69,0.00,,,0.00,Wunderground v.1.12,2013-12-26 05:48:00,
2013-12-26 00:49:00,21.7,13.1,30.35,SSE,153,0.0,0.0,69,0.00,,,0.00,Wunderground v.1.12,2013-12-26 05:49:00,
2013-12-26 00:52:00,21.7,12.8,30.35,SSE,153,0.0,0.0,68,0.00,,,0.00,Wunderground v.1.12,2013-12-26 05:52:00,
2013-12-26 00:53:00,21.7,13.1,30.35,SSE,153,0.0,0.0,69,0.00,,,0.00,Wunderground v.1.12,2013-12-26 05:53:00,
2013-12-26 00:54:00,21.7,13.1,30.35,SSE,153,0.0,0.0,69,0.00,,,0.00,Wunderground v.1.12,2013-12-26 05:54:00,
2013-12-26 00:55:00,21.7,13.1,30.35,SW,219,0.0,0.0,69,0.00,,,0.00,Wunderground v.1.12,2013-12-26 05:55:00,
2013-12-26 00:57:00,21.7,13.1,30.35,SSW,212,0.0,1.0,69,0.00,,,0.00,Wunderground v.1.12,2013-12-26 05:57:00,
2013-12-26 00:59:00,21.8,13.2,30.35,SSW,212,0.0,1.0,69,0.00,,,0.00,Wunderground v.1.12,2013-12-26 05:59:00,
2013-12-26 01:00:00,21.8,12.9,30.35,SW,236,1.0,2.0,68,0.00,,,0.00,Wunderground v.1.12,2013-12-26 06:00:00,
2013-12-26 01:02:00,21.8,12.9,30.34,SSW,208,0.0,2.0,68,0.00,,,0.00,Wunderground v.1.12,2013-12-26 06:02:00,
2013-12-26 01:04:00,21.8,13.2,30.35,SSE,162,1.0,3.0,69,0.00,,,0.00,Wunderground v.1.12,2013-12-26 06:04:00,
2013-12-26 01:05:00,21.8,12.9,30.35,SSW,210,1.0,2.0,68,0.00,,,0.00,Wunderground v.1.12,2013-12-26 06:05:00,
2013-12-26 01:08:00,21.9,13.3,30.34,SW,222,3.0,3.0,69,0.00,,,0.00,Wunderground v.1.12,2013-12-26 06:08:00,
2013-12-26 01:09:00,21.8,13.2,30.34,SSE,153,0.0,3.0,69,0.00,,,0.00,Wunderground v.1.12,2013-12-26 06:09:00,
2013-12-26 01:11:00,21.8,13.2,30.34,SW,226,0.0,1.0,69,0.00,,,0.00,Wunderground v.1.12,2013-12-26 06:11:00,
2013-12-26 01:13:00,21.9,13.3,30.34,SSW,202,0.0,1.0,69,0.00,,,0.00,Wunderground v.1.12,2013-12-26 06:13:00,
2013-12-26 01:14:00,21.8,13.5,30.34,SSW,200,3.0,5.0,70,0.00,,,0.00,Wunderground v.1.12,2013-12-26 06:14:00,
2013-12-26 01:15:00,21.9,13.6,30.34,SW,219,1.0,1.0,70,0.00,,,0.00,Wunderground v.1.12,2013-12-26 06:15:00,
2013-12-26 01:16:00,21.8,13.2,30.34,SE,144,0.0,1.0,69,0.00,,,0.00,Wunderground v.1.12,2013-12-26 06:16:00,
2013-12-26 01:18:00,21.9,13.0,30.34,SE,143,1.0,4.0,68,0.00,,,0.00,Wunderground v.1.12,2013-12-26 06:18:00,
2013-12-26 01:19:00,21.8,13.2,30.34,SW,226,3.0,4.0,69,0.00,,,0.00,Wunderground v.1.12,2013-12-26 06:19:00,
2013-12-26 01:20:00,21.8,13.2,30.34,SSW,193,2.0,3.0,69,0.00,,,0.00,Wunderground v.1.12,2013-12-26 06:20:00,
2013-12-26 01:21:00,21.8,12.9,30.34,South,174,1.0,4.0,68,0.00,,,0.00,Wunderground v.1.12,2013-12-26 06:21:00,
2013-12-26 01:23:00,21.9,13.3,30.33,South,174,0.0,4.0,69,0.00,,,0.00,Wunderground v.1.12,2013-12-26 06:23:00,
2013-12-26 01:24:00,21.8,12.9,30.33,SSE,154,0.0,4.0,68,0.00,,,0.00,Wunderground v.1.12,2013-12-26 06:24:00,
2013-12-26 01:25:00,21.8,12.9,30.33,SSE,154,0.0,1.0,68,0.00,,,0.00,Wunderground v.1.12,2013-12-26 06:25:00,
2013-12-26 01:27:00,21.8,13.2,30.33,South,180,1.0,3.0,69,0.00,,,0.00,Wunderground v.1.12,2013-12-26 06:27:00,
2013-12-26 01:28:00,21.8,13.2,30.33,SW,226,3.0,4.0,69,0.00,,,0.00,Wunderground v.1.12,2013-12-26 06:28:00,
2013-12-26 01:29:00,21.8,13.2,30.33,SSW,192,0.0,4.0,69,0.00,,,0.00,Wunderground v.1.12,2013-12-26 06:29:00,
2013-12-26 01:30:00,21.8,13.2,30.33,SE,141,1.0,1.0,69,0.00,,,0.00,Wunderground v.1.12,2013-12-26 06:30:00,
2013-12-26 01:31:00,21.9,13.3,30.33,SE,144,0.0,3.0,69,0.00,,,0.00,Wunderground v.1.12,2013-12-26 06:31:00,
2013-12-26 01:32:00,21.9,13.3,30.33,South,174,2.0,3.0,69,0.00,,,0.00,Wunderground v.1.12,2013-12-26 06:32:00,
2013-12-26 01:33:00,21.9,13.3,30.33,SE,143,2.0,3.0,69,0.00,,,0.00,Wunderground v.1.12,2013-12-26 06:33:00,
2013-12-26 01:35:00,21.9,13.3,30.33,SSE,162,2.0,3.0,69,0.00,,,0.00,Wunderground v.1.12,2013-12-26 06:35:00,
2013-12-26 01:36:00,21.9,13.0,30.33,South,188,2.0,6.0,68,0.00,,,0.00,Wunderground v.1.12,2013-12-26 06:36:00,
2013-12-26 01:37:00,21.9,13.0,30.33,SW,226,1.0,6.0,68,0.00,,,0.00,Wunderground v.1.12,2013-12-26 06:37:00,
2013-12-26 01:38:00,21.9,13.0,30.33,SW,226,1.0,6.0,68,0.00,,,0.00,Wunderground v.1.12,2013-12-26 06:38:00,
2013-12-26 01:40:00,21.9,13.0,30.34,WSW,245,2.0,2.0,68,0.00,,,0.00,Wunderground v.1.12,2013-12-26 06:40:00,
2013-12-26 01:41:00,21.9,13.0,30.34,SW,224,1.0,2.0,68,0.00,,,0.00,Wunderground v.1.12,2013-12-26 06:41:00,
2013-12-26 01:42:00,22.0,13.0,30.34,SW,236,1.0,2.0,68,0.00,,,0.00,Wunderground v.1.12,2013-12-26 06:42:00,
2013-12-26 01:43:00,22.0,13.4,30.33,WSW,248,1.0,4.0,69,0.00,,,0.00,Wunderground v.1.12,2013-12-26 06:43:00,
2013-12-26 01:45:00,22.0,13.4,30.33,South,172,0.0,1.0,69,0.00,,,0.00,Wunderground v.1.12,2013-12-26 06:45:00,
2013-12-26 01:46:00,22.0,13.4,30.33,SW,222,2.0,2.0,69,0.00,,,0.00,Wunderground v.1.12,2013-12-26 06:46:00,
2013-12-26 01:47:00,22.0,13.0,30.33,South,169,2.0,3.0,68,0.00,,,0.00,Wunderground v.1.12,2013-12-26 06:47:00,
2013-12-26 01:48:00,22.0,13.0,30.33,SSE,148,0.0,3.0,68,0.00,,,0.00,Wunderground v.1.12,2013-12-26 06:48:00,
2013-12-26 01:50:00,22.0,13.0,30.33,SSW,193,1.0,1.0,68,0.00,,,0.00,Wunderground v.1.12,2013-12-26 06:50:00,
2013-12-26 01:51:00,22.0,13.0,30.33,South,173,3.0,3.0,68,0.00,,,0.00,Wunderground v.1.12,2013-12-26 06:51:00,
2013-12-26 01:52:00,22.0,13.0,30.33,SW,228,0.0,3.0,68,0.00,,,0.00,Wunderground v.1.12,2013-12-26 06:52:00,
2013-12-26 01:53:00,22.0,13.4,30.33,SSE,167,1.0,3.0,69,0.00,,,0.00,Wunderground v.1.12,2013-12-26 06:53:00,
2013-12-26 01:55:00,22.0,13.0,30.33,WSW,250,2.0,3.0,68,0.00,,,0.00,Wunderground v.1.12,2013-12-26 06:55:00,
2013-12-26 01:56:00,22.0,13.0,30.33,WSW,250,1.0,3.0,68,0.00,,,0.00,Wunderground v.1.12,2013-12-26 06:56:00,
2013-12-26 01:58:00,22.1,13.1,30.34,WSW,253,1.0,4.0,68,0.00,,,0.00,Wunderground v.1.12,2013-12-26 06:58:00,
2013-12-26 01:59:00,22.0,13.0,30.34,SSW,208,0.0,4.0,68,0.00,,,0.00,Wunderground v.1.12,2013-12-26 06:59:00,
2013-12-26 02:01:00,22.0,13.0,30.34,South,183,1.0,2.0,68,0.00,,,0.00,Wunderground v.1.12,2013-12-26 07:01:00,
2013-12-26 02:03:00,22.1,13.5,30.33,SSW,210,0.0,2.0,69,0.00,,,0.00,Wunderground v.1.12,2013-12-26 07:03:00,
2013-12-26 02:04:00,22.1,13.5,30.33,SW,218,1.0,2.0,69,0.00,,,0.00,Wunderground v.1.12,2013-12-26 07:04:00,
2013-12-26 02:06:00,22.1,13.5,30.33,South,188,0.0,3.0,69,0.00,,,0.00,Wunderground v.1.12,2013-12-26 07:06:00,
2013-12-26 02:07:00,22.1,13.5,30.33,SE,131,1.0,4.0,69,0.00,,,0.00,Wunderground v.1.12,2013-12-26 07:07:00,
2013-12-26 02:09:00,22.1,13.8,30.33,SE,136,2.0,4.0,70,0.00,,,0.00,Wunderground v.1.12,2013-12-26 07:09:00,
2013-12-26 02:11:00,22.1,13.8,30.33,SW,232,5.0,5.0,70,0.00,,,0.00,Wunderground v.1.12,2013-12-26 07:11:00,
2013-12-26 02:12:00,22.1,13.5,30.33,WSW,242,2.0,5.0,69,0.00,,,0.00,Wunderground v.1.12,2013-12-26 07:12:00,
2013-12-26 02:14:00,22.1,13.5,30.33,West,262,2.0,5.0,69,0.00,,,0.00,Wunderground v.1.12,2013-12-26 07:14:00,
2013-12-26 02:16:00,22.0,13.7,30.33,WSW,249,1.0,3.0,70,0.00,,,0.00,Wunderground v.1.12,2013-12-26 07:16:00,
2013-12-26 02:17:00,22.0,13.4,30.32,SW,235,1.0,4.0,69,0.00,,,0.00,Wunderground v.1.12,2013-12-26 07:17:00,
2013-12-26 02:19:00,22.0,13.7,30.33,SSE,150,2.0,4.0,70,0.00,,,0.00,Wunderground v.1.12,2013-12-26 07:19:00,
2013-12-26 02:21:00,22.0,13.4,30.32,SW,221,0.0,4.0,69,0.00,,,0.00,Wunderground v.1.12,2013-12-26 07:21:00,
2013-12-26 02:22:00,22.0,13.7,30.32,West,259,2.0,4.0,70,0.00,,,0.00,Wunderground v.1.12,2013-12-26 07:22:00,
2013-12-26 02:24:00,22.0,13.4,30.33,SW,225,1.0,4.0,69,0.00,,,0.00,Wunderground v.1.12,2013-12-26 07:24:00,
2013-12-26 02:25:00,22.0,13.7,30.33,WSW,244,4.0,4.0,70,0.00,,,0.00,Wunderground v.1.12,2013-12-26 07:25:00,
2013-12-26 02:26:00,22.0,13.4,30.32,SW,217,0.0,5.0,69,0.00,,,0.00,Wunderground v.1.12,2013-12-26 07:26:00,
2013-12-26 02:28:00,22.1,13.8,30.32,WSW,253,1.0,5.0,70,0.00,,,0.00,Wunderground v.1.12,2013-12-26 07:28:00,
2013-12-26 02:29:00,22.1,13.8,30.32,WSW,243,3.0,5.0,70,0.00,,,0.00,Wunderground v.1.12,2013-12-26 07:29:00,
2013-12-26 02:30:00,22.0,13.4,30.32,SSW,204,1.0,2.0,69,0.00,,,0.00,Wunderground v.1.12,2013-12-26 07:30:00,
2013-12-26 02:31:00,22.1,13.5,30.32,WSW,248,5.0,5.0,69,0.00,,,0.00,Wunderground v.1.12,2013-12-26 07:31:00,
2013-12-26 02:33:00,22.1,13.5,30.32,SSE,163,2.0,5.0,69,0.00,,,0.00,Wunderground v.1.12,2013-12-26 07:33:00,
2013-12-26 02:34:00,22.1,13.5,30.32,SW,215,2.0,5.0,69,0.00,,,0.00,Wunderground v.1.12,2013-12-26 07:34:00,
2013-12-26 02:35:00,22.1,13.5,30.32,WSW,239,1.0,3.0,69,0.00,,,0.00,Wunderground v.1.12,2013-12-26 07:35:00,
2013-12-26 02:36:00,22.1,13.5,30.32,SSW,210,2.0,3.0,69,0.00,,,0.00,Wunderground v.1.12,2013-12-26 07:36:00,
2013-12-26 02:38:00,22.1,13.5,30.32,SSW,208,1.0,4.0,69,0.00,,,0.00,Wunderground v.1.12,2013-12-26 07:38:00,
2013-12-26 02:39:00,22.1,13.5,30.32,WSW,242,1.0,4.0,69,0.00,,,0.00,Wunderground v.1.12,2013-12-26 07:39:00,
2013-12-26 02:40:00,22.1,13.8,30.32,SSW,195,0.0,4.0,70,0.00,,,0.00,Wunderground v.1.12,2013-12-26 07:40:00,
2013-12-26 02:41:00,22.1,13.8,30.32,SW,233,1.0,4.0,70,0.00,,,0.00,Wunderground v.1.12,2013-12-26 07:41:00,
2013-12-26 02:42:00,22.1,13.8,30.32,SW,214,0.0,4.0,70,0.00,,,0.00,Wunderground v.1.12,2013-12-26 07:42:00,
2013-12-26 02:43:00,22.1,13.8,30.32,SSW,202,2.0,4.0,70,0.00,,,0.00,Wunderground v.1.12,2013-12-26 07:43:00,
2013-12-26 02:44:00,22.1,13.8,30.32,SSW,211,3.0,5.0,70,0.00,,,0.00,Wunderground v.1.12,2013-12-26 07:44:00,
2013-12-26 02:45:00,22.2,13.6,30.32,South,169,0.0,1.0,69,0.00,,,0.00,Wunderground v.1.12,2013-12-26 07:45:00,
2013-12-26 02:46:00,22.1,13.5,30.32,South,184,0.0,1.0,69,0.00,,,0.00,Wunderground v.1.12,2013-12-26 07:46:00,
2013-12-26 02:47:00,22.2,13.9,30.32,WSW,243,2.0,3.0,70,0.00,,,0.00,Wunderground v.1.12,2013-12-26 07:47:00,
2013-12-26 02:48:00,22.1,13.8,30.32,WSW,240,0.0,3.0,70,0.00,,,0.00,Wunderground v.1.12,2013-12-26 07:48:00,
2013-12-26 02:49:00,22.2,13.9,30.32,SW,233,1.0,3.0,70,0.00,,,0.00,Wunderground v.1.12,2013-12-26 07:49:00,
2013-12-26 02:51:00,22.2,14.2,30.32,WSW,250,1.0,1.0,71,0.00,,,0.00,Wunderground v.1.12,2013-12-26 07:51:00,
2013-12-26 02:52:00,22.2,13.9,30.32,WSW,248,2.0,2.0,70,0.00,,,0.00,Wunderground v.1.12,2013-12-26 07:52:00,
2013-12-26 02:54:00,22.2,13.9,30.32,WSW,249,1.0,2.0,70,0.00,,,0.00,Wunderground v.1.12,2013-12-26 07:54:00,
2013-12-26 02:56:00,22.2,14.2,30.32,WSW,248,1.0,2.0,71,0.00,,,0.00,Wunderground v.1.12,2013-12-26 07:56:00,
2013-12-26 02:57:00,22.2,13.9,30.32,WSW,240,1.0,2.0,70,0.00,,,0.00,Wunderground v.1.12,2013-12-26 07:57:00,
2013-12-26 02:59:00,22.2,13.9,30.32,WSW,244,1.0,2.0,70,0.00,,,0.00,Wunderground v.1.12,2013-12-26 07:59:00,
2013-12-26 03:01:00,22.3,14.3,30.32,WSW,248,1.0,1.0,71,0.00,,,0.00,Wunderground v.1.12,2013-12-26 08:01:00,
2013-12-26 03:02:00,22.2,13.9,30.32,WSW,240,1.0,2.0,70,0.00,,,0.00,Wunderground v.1.12,2013-12-26 08:02:00,
2013-12-26 03:04:00,22.2,14.2,30.32,South,188,0.0,2.0,71,0.00,,,0.00,Wunderground v.1.12,2013-12-26 08:04:00,
2013-12-26 03:06:00,22.2,14.2,30.32,WSW,238,0.0,1.0,71,0.00,,,0.00,Wunderground v.1.12,2013-12-26 08:06:00,
2013-12-26 03:07:00,22.3,14.3,30.32,WSW,238,0.0,1.0,71,0.00,,,0.00,Wunderground v.1.12,2013-12-26 08:07:00,
2013-12-26 03:09:00,22.2,14.2,30.32,WSW,243,0.0,2.0,71,0.00,,,0.00,Wunderground v.1.12,2013-12-26 08:09:00,
2013-12-26 03:10:00,22.2,14.2,30.32,WSW,246,1.0,1.0,71,0.00,,,0.00,Wunderground v.1.12,2013-12-26 08:10:00,
2013-12-26 03:11:00,22.2,14.2,30.32,WSW,240,0.0,1.0,71,0.00,,,0.00,Wunderground v.1.12,2013-12-26 08:11:00,
2013-12-26 03:12:00,22.2,14.2,30.32,WSW,239,0.0,1.0,71,0.00,,,0.00,Wunderground v.1.12,2013-12-26 08:12:00,
2013-12-26 03:14:00,22.2,14.2,30.32,WSW,249,0.0,1.0,71,0.00,,,0.00,Wunderground v.1.12,2013-12-26 08:14:00,
2013-12-26 03:15:00,22.2,14.2,30.32,WSW,248,0.0,0.0,71,0.00,,,0.00,Wunderground v.1.12,2013-12-26 08:15:00,
2013-12-26 03:16:00,22.2,14.2,30.32,SSW,204,0.0,1.0,71,0.00,,,0.00,Wunderground v.1.12,2013-12-26 08:16:00,
2013-12-26 03:17:00,22.2,14.2,30.32,SSW,204,0.0,1.0,71,0.00,,,0.00,Wunderground v.1.12,2013-12-26 08:17:00,
2013-12-26 03:19:00,22.2,14.2,30.32,SSW,204,0.0,1.0,71,0.00,,,0.00,Wunderground v.1.12,2013-12-26 08:19:00,
2013-12-26 03:21:00,22.2,14.2,30.32,SSW,204,0.0,0.0,71,0.00,,,0.00,Wunderground v.1.12,2013-12-26 08:21:00,
2013-12-26 03:22:00,22.2,14.2,30.32,SSW,204,0.0,0.0,71,0.00,,,0.00,Wunderground v.1.12,2013-12-26 08:22:00,
2013-12-26 03:23:00,22.2,14.5,30.32,SSW,204,0.0,0.0,72,0.00,,,0.00,Wunderground v.1.12,2013-12-26 08:23:00,
2013-12-26 03:24:00,22.2,14.5,30.32,SSW,204,0.0,0.0,72,0.00,,,0.00,Wunderground v.1.12,2013-12-26 08:24:00,
2013-12-26 03:26:00,22.2,14.2,30.32,SSW,205,0.0,0.0,71,0.00,,,0.00,Wunderground v.1.12,2013-12-26 08:26:00,
2013-12-26 03:27:00,22.2,14.2,30.32,SSW,204,0.0,0.0,71,0.00,,,0.00,Wunderground v.1.12,2013-12-26 08:27:00,
2013-12-26 03:28:00,22.2,14.2,30.32,SSW,204,0.0,0.0,71,0.00,,,0.00,Wunderground v.1.12,2013-12-26 08:28:00,
2013-12-26 03:29:00,22.2,14.5,30.32,SSW,204,0.0,0.0,72,0.00,,,0.00,Wunderground v.1.12,2013-12-26 08:29:00,
2013-12-26 03:31:00,22.2,14.5,30.32,SSW,204,0.0,0.0,72,0.00,,,0.00,Wunderground v.1.12,2013-12-26 08:31:00,
2013-12-26 03:32:00,22.2,14.5,30.32,SSW,204,0.0,0.0,72,0.00,,,0.00,Wunderground v.1.12,2013-12-26 08:32:00,
2013-12-26 03:33:00,22.2,14.5,30.32,SSW,204,0.0,0.0,72,0.00,,,0.00,Wunderground v.1.12,2013-12-26 08:33:00,
2013-12-26 03:34:00,22.2,14.5,30.32,SSW,204,0.0,0.0,72,0.00,,,0.00,Wunderground v.1.12,2013-12-26 08:34:00,
2013-12-26 03:36:00,22.1,14.8,30.32,SSW,204,0.0,0.0,73,0.00,,,0.00,Wunderground v.1.12,2013-12-26 08:36:00,
2013-12-26 03:37:00,22.2,14.9,30.32,SSW,204,0.0,0.0,73,0.00,,,0.00,Wunderground v.1.12,2013-12-26 08:37:00,
2013-12-26 03:38:00,22.1,14.8,30.32,SSW,204,0.0,0.0,73,0.00,,,0.00,Wunderground v.1.12,2013-12-26 08:38:00,
2013-12-26 03:39:00,22.1,15.1,30.32,SSW,204,0.0,0.0,74,0.00,,,0.00,Wunderground v.1.12,2013-12-26 08:39:00,
2013-12-26 03:41:00,22.1,15.1,30.32,SSW,204,0.0,0.0,74,0.00,,,0.00,Wunderground v.1.12,2013-12-26 08:41:00,
2013-12-26 03:42:00,22.1,15.4,30.32,SSW,204,0.0,0.0,75,0.00,,,0.00,Wunderground v.1.12,2013-12-26 08:42:00,
2013-12-26 03:43:00,22.1,15.4,30.32,SSW,204,0.0,0.0,75,0.00,,,0.00,Wunderground v.1.12,2013-12-26 08:43:00,
2013-12-26 03:44:00,22.1,15.4,30.31,SSW,204,0.0,0.0,75,0.00,,,0.00,Wunderground v.1.12,2013-12-26 08:44:00,
2013-12-26 03:46:00,22.1,15.1,30.31,SSW,204,0.0,0.0,74,0.00,,,0.00,Wunderground v.1.12,2013-12-26 08:46:00,
2013-12-26 03:47:00,22.1,15.4,30.31,SSW,205,0.0,0.0,75,0.00,,,0.00,Wunderground v.1.12,2013-12-26 08:47:00,
2013-12-26 03:48:00,22.1,15.4,30.31,SSW,204,0.0,0.0,75,0.00,,,0.00,Wunderground v.1.12,2013-12-26 08:48:00,
2013-12-26 03:49:00,22.0,15.3,30.31,SSW,204,0.0,0.0,75,0.00,,,0.00,Wunderground v.1.12,2013-12-26 08:49:00,
2013-12-26 03:52:00,22.0,15.6,30.31,SSW,204,0.0,0.0,76,0.00,,,0.00,Wunderground v.1.12,2013-12-26 08:52:00,
2013-12-26 03:53:00,22.0,15.6,30.31,SSW,204,0.0,0.0,76,0.00,,,0.00,Wunderground v.1.12,2013-12-26 08:53:00,
2013-12-26 03:55:00,22.0,15.6,30.31,SSW,204,0.0,0.0,76,0.00,,,0.00,Wunderground v.1.12,2013-12-26 08:55:00,
2013-12-26 03:57:00,22.0,15.9,30.31,SSW,204,0.0,0.0,77,0.00,,,0.00,Wunderground v.1.12,2013-12-26 08:57:00,
2013-12-26 03:58:00,22.0,15.9,30.31,SSW,204,0.0,0.0,77,0.00,,,0.00,Wunderground v.1.12,2013-12-26 08:58:00,
2013-12-26 04:00:00,21.9,15.8,30.31,SSW,204,0.0,0.0,77,0.00,,,0.00,Wunderground v.1.12,2013-12-26 09:00:00,
2013-12-26 04:02:00,21.9,16.1,30.31,SSW,204,0.0,0.0,78,0.00,,,0.00,Wunderground v.1.12,2013-12-26 09:02:00,
2013-12-26 04:03:00,21.9,16.1,30.31,SSW,204,0.0,0.0,78,0.00,,,0.00,Wunderground v.1.12,2013-12-26 09:03:00,
2013-12-26 04:05:00,21.9,16.1,30.30,SSW,204,0.0,0.0,78,0.00,,,0.00,Wunderground v.1.12,2013-12-26 09:05:00,
2013-12-26 04:07:00,21.8,16.3,30.30,SSW,204,0.0,0.0,79,0.00,,,0.00,Wunderground v.1.12,2013-12-26 09:07:00,
2013-12-26 04:08:00,21.8,16.6,30.30,SSW,204,0.0,0.0,80,0.00,,,0.00,Wunderground v.1.12,2013-12-26 09:08:00,
2013-12-26 04:10:00,21.7,16.5,30.30,WSW,242,1.0,1.0,80,0.00,,,0.00,Wunderground v.1.12,2013-12-26 09:10:00,
2013-12-26 04:12:00,21.7,16.5,30.30,South,178,0.0,2.0,80,0.00,,,0.00,Wunderground v.1.12,2013-12-26 09:12:00,
2013-12-26 04:13:00,21.6,16.4,30.30,SW,231,1.0,2.0,80,0.00,,,0.00,Wunderground v.1.12,2013-12-26 09:13:00,
2013-12-26 04:14:00,21.6,16.7,30.30,SW,229,0.0,2.0,81,0.00,,,0.00,Wunderground v.1.12,2013-12-26 09:14:00,
2013-12-26 04:15:00,21.5,16.6,30.30,SSW,210,0.0,0.0,81,0.00,,,0.00,Wunderground v.1.12,2013-12-26 09:15:00,
2013-12-26 04:18:00,21.5,16.9,30.30,WSW,245,0.0,1.0,82,0.00,,,0.00,Wunderground v.1.12,2013-12-26 09:18:00,
2013-12-26 04:19:00,21.5,16.9,30.30,SSW,207,1.0,1.0,82,0.00,,,0.00,Wunderground v.1.12,2013-12-26 09:19:00,
2013-12-26 04:20:00,21.4,16.8,30.30,South,177,0.0,0.0,82,0.00,,,0.00,Wunderground v.1.12,2013-12-26 09:20:00,
2013-12-26 04:23:00,21.4,17.0,30.30,South,177,0.0,0.0,83,0.00,,,0.00,Wunderground v.1.12,2013-12-26 09:23:00,
2013-12-26 04:24:00,21.4,17.0,30.30,South,177,0.0,0.0,83,0.00,,,0.00,Wunderground v.1.12,2013-12-26 09:24:00,
2013-12-26 04:25:00,21.4,17.0,30.30,WSW,238,0.0,0.0,83,0.00,,,0.00,Wunderground v.1.12,2013-12-26 09:25:00,
2013-12-26 04:28:00,21.3,16.9,30.30,SW,226,0.0,1.0,83,0.00,,,0.00,Wunderground v.1.12,2013-12-26 09:28:00,
2013-12-26 04:29:00,21.3,16.9,30.30,SW,226,0.0,1.0,83,0.00,,,0.00,Wunderground v.1.12,2013-12-26 09:29:00,
2013-12-26 04:30:00,21.3,17.2,30.30,SE,143,0.0,0.0,84,0.00,,,0.00,Wunderground v.1.12,2013-12-26 09:30:00,
2013-12-26 04:33:00,21.3,17.2,30.29,WSW,248,0.0,1.0,84,0.00,,,0.00,Wunderground v.1.12,2013-12-26 09:33:00,
2013-12-26 04:34:00,21.3,17.5,30.29,WSW,250,0.0,1.0,85,0.00,,,0.00,Wunderground v.1.12,2013-12-26 09:34:00,
2013-12-26 04:35:00,21.3,17.5,30.29,SSE,166,0.0,1.0,85,0.00,,,0.00,Wunderground v.1.12,2013-12-26 09:35:00,
2013-12-26 04:38:00,21.3,17.5,30.29,West,267,0.0,2.0,85,0.00,,,0.00,Wunderground v.1.12,2013-12-26 09:38:00,
2013-12-26 04:39:00,21.3,17.5,30.29,WSW,249,0.0,2.0,85,0.00,,,0.00,Wunderground v.1.12,2013-12-26 09:39:00,
2013-12-26 04:40:00,21.3,17.5,30.29,SW,221,1.0,1.0,85,0.00,,,0.00,Wunderground v.1.12,2013-12-26 09:40:00,
2013-12-26 04:44:00,21.2,17.7,30.29,South,169,0.0,1.0,86,0.00,,,0.00,Wunderground v.1.12,2013-12-26 09:44:00,
2013-12-26 04:45:00,21.2,17.7,30.29,South,169,0.0,0.0,86,0.00,,,0.00,Wunderground v.1.12,2013-12-26 09:45:00,
2013-12-26 04:46:00,21.2,17.7,30.29,South,169,0.0,0.0,86,0.00,,,0.00,Wunderground v.1.12,2013-12-26 09:46:00,
2013-12-26 04:49:00,21.2,17.7,30.29,SW,219,1.0,1.0,86,0.00,,,0.00,Wunderground v.1.12,2013-12-26 09:49:00,
2013-12-26 04:50:00,21.2,17.7,30.29,SW,219,0.0,1.0,86,0.00,,,0.00,Wunderground v.1.12,2013-12-26 09:50:00,
2013-12-26 04:51:00,21.2,17.9,30.29,SW,220,0.0,1.0,87,0.00,,,0.00,Wunderground v.1.12,2013-12-26 09:51:00,
2013-12-26 04:54:00,21.2,17.9,30.29,SW,230,0.0,0.0,87,0.00,,,0.00,Wunderground v.1.12,2013-12-26 09:54:00,
2013-12-26 04:55:00,21.2,17.9,30.29,WSW,240,2.0,2.0,87,0.00,,,0.00,Wunderground v.1.12,2013-12-26 09:55:00,
2013-12-26 04:56:00,21.1,17.8,30.29,SW,225,3.0,3.0,87,0.00,,,0.00,Wunderground v.1.12,2013-12-26 09:56:00,
2013-12-26 04:59:00,21.2,17.9,30.29,South,169,1.0,2.0,87,0.00,,,0.00,Wunderground v.1.12,2013-12-26 09:59:00,
2013-12-26 05:00:00,21.1,17.8,30.29,SW,219,1.0,2.0,87,0.00,,,0.00,Wunderground v.1.12,2013-12-26 10:00:00,
2013-12-26 05:01:00,21.1,18.1,30.29,SSW,193,0.0,2.0,88,0.00,,,0.00,Wunderground v.1.12,2013-12-26 10:01:00,
2013-12-26 05:04:00,21.1,18.1,30.29,SW,224,2.0,2.0,88,0.00,,,0.00,Wunderground v.1.12,2013-12-26 10:04:00,
2013-12-26 05:05:00,21.1,18.1,30.30,SW,221,0.0,2.0,88,0.00,,,0.00,Wunderground v.1.12,2013-12-26 10:05:00,
2013-12-26 05:06:00,21.1,18.1,30.30,SW,232,1.0,2.0,88,0.00,,,0.00,Wunderground v.1.12,2013-12-26 10:06:00,
2013-12-26 05:10:00,21.1,18.4,30.29,SW,224,0.0,1.0,89,0.00,,,0.00,Wunderground v.1.12,2013-12-26 10:10:00,
2013-12-26 05:12:00,21.1,18.4,30.29,SW,215,0.0,2.0,89,0.00,,,0.00,Wunderground v.1.12,2013-12-26 10:12:00,
2013-12-26 05:15:00,21.1,18.4,30.29,SW,235,2.0,3.0,89,0.00,,,0.00,Wunderground v.1.12,2013-12-26 10:15:00,
2013-12-26 05:16:00,21.1,18.6,30.29,West,259,2.0,3.0,90,0.00,,,0.00,Wunderground v.1.12,2013-12-26 10:16:00,
2013-12-26 05:17:00,21.1,18.6,30.29,WSW,239,0.0,3.0,90,0.00,,,0.00,Wunderground v.1.12,2013-12-26 10:17:00,
2013-12-26 05:20:00,21.2,18.7,30.29,WNW,284,1.0,2.0,90,0.00,,,0.00,Wunderground v.1.12,2013-12-26 10:20:00,
2013-12-26 05:21:00,21.2,18.7,30.30,WSW,248,0.0,2.0,90,0.00,,,0.00,Wunderground v.1.12,2013-12-26 10:21:00,
2013-12-26 05:22:00,21.2,18.7,30.30,SSW,210,0.0,2.0,90,0.00,,,0.00,Wunderground v.1.12,2013-12-26 10:22:00,
2013-12-26 05:25:00,21.3,19.1,30.30,WSW,254,0.0,1.0,91,0.00,,,0.00,Wunderground v.1.12,2013-12-26 10:25:00,
2013-12-26 05:26:00,21.3,19.1,30.30,SW,235,1.0,1.0,91,0.00,,,0.00,Wunderground v.1.12,2013-12-26 10:26:00,
2013-12-26 05:27:00,21.3,19.1,30.29,SSW,197,0.0,3.0,91,0.00,,,0.00,Wunderground v.1.12,2013-12-26 10:27:00,
2013-12-26 05:30:00,21.3,19.1,30.29,SW,229,0.0,1.0,91,0.00,,,0.00,Wunderground v.1.12,2013-12-26 10:30:00,
2013-12-26 05:31:00,21.3,19.1,30.29,SW,229,0.0,1.0,91,0.00,,,0.00,Wunderground v.1.12,2013-12-26 10:31:00,
2013-12-26 05:32:00,21.3,19.1,30.29,WSW,240,0.0,1.0,91,0.00,,,0.00,Wunderground v.1.12,2013-12-26 10:32:00,
2013-12-26 05:35:00,21.4,19.2,30.29,WSW,246,1.0,2.0,91,0.00,,,0.00,Wunderground v.1.12,2013-12-26 10:35:00,
2013-12-26 05:36:00,21.4,19.2,30.29,WSW,242,0.0,2.0,91,0.00,,,0.00,Wunderground v.1.12,2013-12-26 10:36:00,
2013-12-26 05:37:00,21.4,19.2,30.29,South,183,0.0,2.0,91,0.00,,,0.00,Wunderground v.1.12,2013-12-26 10:37:00,
2013-12-26 05:40:00,21.4,19.4,30.29,WSW,255,3.0,3.0,92,0.00,,,0.00,Wunderground v.1.12,2013-12-26 10:40:00,
2013-12-26 05:41:00,21.4,19.4,30.28,WSW,239,2.0,3.0,92,0.00,,,0.00,Wunderground v.1.12,2013-12-26 10:41:00,
2013-12-26 05:42:00,21.5,19.5,30.29,SW,221,1.0,3.0,92,0.00,,,0.00,Wunderground v.1.12,2013-12-26 10:42:00,
2013-12-26 05:46:00,21.5,19.5,30.28,SW,228,1.0,2.0,92,0.00,,,0.00,Wunderground v.1.12,2013-12-26 10:46:00,
2013-12-26 05:48:00,21.5,19.5,30.29,SSW,210,0.0,2.0,92,0.00,,,0.00,Wunderground v.1.12,2013-12-26 10:48:00,
2013-12-26 05:51:00,21.6,19.6,30.28,SW,228,1.0,2.0,92,0.00,,,0.00,Wunderground v.1.12,2013-12-26 10:51:00,
2013-12-26 05:53:00,21.7,19.7,30.28,SW,225,0.0,2.0,92,0.00,,,0.00,Wunderground v.1.12,2013-12-26 10:53:00,
2013-12-26 05:56:00,21.7,19.7,30.28,South,180,1.0,2.0,92,0.00,,,0.00,Wunderground v.1.12,2013-12-26 10:56:00,
2013-12-26 05:58:00,21.8,19.8,30.28,SW,221,0.0,2.0,92,0.00,,,0.00,Wunderground v.1.12,2013-12-26 10:58:00,
2013-12-26 06:01:00,21.8,19.8,30.28,WSW,250,2.0,2.0,92,0.00,,,0.00,Wunderground v.1.12,2013-12-26 11:01:00,
2013-12-26 06:03:00,21.9,19.9,30.28,WSW,238,0.0,2.0,92,0.00,,,0.00,Wunderground v.1.12,2013-12-26 11:03:00,
2013-12-26 06:06:00,22.0,20.0,30.28,SW,235,1.0,2.0,92,0.00,,,0.00,Wunderground v.1.12,2013-12-26 11:06:00,
2013-12-26 06:07:00,22.0,20.0,30.28,SW,235,0.0,2.0,92,0.00,,,0.00,Wunderground v.1.12,2013-12-26 11:07:00,
2013-12-26 06:09:00,22.1,20.1,30.28,SSE,160,0.0,3.0,92,0.00,,,0.00,Wunderground v.1.12,2013-12-26 11:09:00,
2013-12-26 06:11:00,22.1,20.1,30.28,SW,222,1.0,3.0,92,0.00,,,0.00,Wunderground v.1.12,2013-12-26 11:11:00,
2013-12-26 06:12:00,22.1,20.1,30.28,SW,233,1.0,3.0,92,0.00,,,0.00,Wunderground v.1.12,2013-12-26 11:12:00,
2013-12-26 06:14:00,22.2,20.2,30.28,SW,226,1.0,3.0,92,0.00,,,0.00,Wunderground v.1.12,2013-12-26 11:14:00,
2013-12-26 06:17:00,22.3,20.3,30.28,SSW,205,2.0,3.0,92,0.00,,,0.00,Wunderground v.1.12,2013-12-26 11:17:00,
2013-12-26 06:19:00,22.4,20.4,30.28,WSW,250,3.0,3.0,92,0.00,,,0.00,Wunderground v.1.12,2013-12-26 11:19:00,
2013-12-26 06:22:00,22.5,20.5,30.28,South,184,3.0,3.0,92,0.00,,,0.00,Wunderground v.1.12,2013-12-26 11:22:00,
2013-12-26 06:24:00,22.7,20.7,30.28,WNW,288,4.0,7.0,92,0.00,,,0.00,Wunderground v.1.12,2013-12-26 11:24:00,
2013-12-26 06:27:00,23.0,21.0,30.28,West,267,0.0,7.0,92,0.00,,,0.00,Wunderground v.1.12,2013-12-26 11:27:00,
2013-12-26 06:28:00,23.1,20.9,30.28,WSW,240,0.0,7.0,91,0.00,,,0.00,Wunderground v.1.12,2013-12-26 11:28:00,
2013-12-26 06:30:00,23.2,21.0,30.28,WSW,252,3.0,4.0,91,0.00,,,0.00,Wunderground v.1.12,2013-12-26 11:30:00,
2013-12-26 06:32:00,23.3,21.1,30.28,West,268,1.0,4.0,91,0.00,,,0.00,Wunderground v.1.12,2013-12-26 11:32:00,
2013-12-26 06:33:00,23.3,21.1,30.28,WSW,255,1.0,4.0,91,0.00,,,0.00,Wunderground v.1.12,2013-12-26 11:33:00,
2013-12-26 06:35:00,23.4,21.2,30.28,West,266,1.0,4.0,91,0.00,,,0.00,Wunderground v.1.12,2013-12-26 11:35:00,
2013-12-26 06:37:00,23.5,21.3,30.28,West,264,4.0,5.0,91,0.00,,,0.00,Wunderground v.1.12,2013-12-26 11:37:00,
2013-12-26 06:38:00,23.6,21.4,30.28,WSW,256,2.0,5.0,91,0.00,,,0.00,Wunderground v.1.12,2013-12-26 11:38:00,
2013-12-26 06:40:00,23.8,21.6,30.28,WSW,248,3.0,9.0,91,0.00,,,0.00,Wunderground v.1.12,2013-12-26 11:40:00,
2013-12-26 06:42:00,24.0,21.8,30.28,West,267,5.0,9.0,91,0.00,,,0.00,Wunderground v.1.12,2013-12-26 11:42:00,
2013-12-26 06:43:00,24.0,21.8,30.27,WSW,242,3.0,9.0,91,0.00,,,0.00,Wunderground v.1.12,2013-12-26 11:43:00,
2013-12-26 06:45:00,24.3,21.8,30.27,West,264,7.0,7.0,90,0.00,,,0.00,Wunderground v.1.12,2013-12-26 11:45:00,
2013-12-26 06:47:00,24.4,21.9,30.27,West,281,2.0,9.0,90,0.00,,,0.00,Wunderground v.1.12,2013-12-26 11:47:00,
2013-12-26 06:48:00,24.4,21.9,30.27,WNW,284,2.0,9.0,90,0.00,,,0.00,Wunderground v.1.12,2013-12-26 11:48:00,
2013-12-26 06:49:00,24.4,21.9,30.27,WSW,255,1.0,9.0,90,0.00,,,0.00,Wunderground v.1.12,2013-12-26 11:49:00,
2013-12-26 06:51:00,24.5,22.0,30.27,WNW,286,3.0,5.0,90,0.00,,,0.00,Wunderground v.1.12,2013-12-26 11:51:00,
2013-12-26 06:52:00,24.6,22.1,30.27,West,266,8.0,9.0,90,0.00,,,0.00,Wunderground v.1.12,2013-12-26 11:52:00,
2013-12-26 06:53:00,24.7,22.2,30.27,West,274,3.0,9.0,90,0.00,,,0.00,Wunderground v.1.12,2013-12-26 11:53:00,
2013-12-26 06:54:00,24.7,22.2,30.27,WNW,297,6.0,9.0,90,0.00,,,0.00,Wunderground v.1.12,2013-12-26 11:54:00,
2013-12-26 06:56:00,24.8,22.3,30.27,West,278,6.0,8.0,90,0.00,,,0.00,Wunderground v.1.12,2013-12-26 11:56:00,
2013-12-26 06:57:00,24.9,22.4,30.27,WSW,258,4.0,10.0,90,0.00,,,0.00,Wunderground v.1.12,2013-12-26 11:57:00,
2013-12-26 06:58:00,24.9,22.4,30.27,West,266,3.0,10.0,90,0.00,,,0.00,Wunderground v.1.12,2013-12-26 11:58:00,
2013-12-26 06:59:00,24.9,22.4,30.27,South,183,1.0,10.0,90,0.00,,,0.00,Wunderground v.1.12,2013-12-26 11:59:00,
2013-12-26 07:01:00,25.0,22.2,30.27,West,259,5.0,12.0,89,0.00,,,0.00,Wunderground v.1.12,2013-12-26 12:01:00,
2013-12-26 07:02:00,25.1,22.3,30.27,WSW,250,2.0,12.0,89,0.00,,,0.00,Wunderground v.1.12,2013-12-26 12:02:00,
2013-12-26 07:03:00,25.1,22.3,30.27,WSW,243,3.0,12.0,89,0.00,,,0.00,Wunderground v.1.12,2013-12-26 12:03:00,
2013-12-26 07:04:00,25.1,22.3,30.27,West,268,6.0,12.0,89,0.00,,,0.00,Wunderground v.1.12,2013-12-26 12:04:00,
2013-12-26 07:06:00,25.2,22.4,30.27,West,278,4.0,7.0,89,0.00,,,0.00,Wunderground v.1.12,2013-12-26 12:06:00,
2013-12-26 07:08:00,25.2,22.4,30.27,WSW,238,3.0,7.0,89,0.00,,,0.00,Wunderground v.1.12,2013-12-26 12:08:00,
2013-12-26 07:09:00,25.2,22.4,30.27,SW,219,1.0,7.0,89,0.00,,,0.00,Wunderground v.1.12,2013-12-26 12:09:00,
2013-12-26 07:11:00,25.2,22.4,30.26,WNW,298,0.0,7.0,89,0.00,,,0.00,Wunderground v.1.12,2013-12-26 12:11:00,
2013-12-26 07:13:00,25.3,22.5,30.27,West,262,3.0,9.0,89,0.00,,,0.00,Wunderground v.1.12,2013-12-26 12:13:00,
2013-12-26 07:14:00,25.3,22.5,30.26,SSW,212,2.0,9.0,89,0.00,,,0.00,Wunderground v.1.12,2013-12-26 12:14:00,
2013-12-26 07:17:00,25.4,22.6,30.26,WSW,255,5.0,6.0,89,0.00,,,0.00,Wunderground v.1.12,2013-12-26 12:17:00,
2013-12-26 07:18:00,25.4,22.6,30.26,West,262,5.0,9.0,89,0.00,,,0.00,Wunderground v.1.12,2013-12-26 12:18:00,
2013-12-26 07:19:00,25.5,22.7,30.26,West,266,3.0,9.0,89,0.00,,,0.00,Wunderground v.1.12,2013-12-26 12:19:00,
2013-12-26 07:20:00,25.5,22.7,30.26,WSW,249,5.0,6.0,89,0.00,,,0.00,Wunderground v.1.12,2013-12-26 12:20:00,
2013-12-26 07:22:00,25.6,22.8,30.27,North,352,2.0,6.0,89,0.00,,,0.00,Wunderground v.1.12,2013-12-26 12:22:00,
2013-12-26 07:23:00,25.6,22.8,30.27,West,281,4.0,7.0,89,0.00,,,0.00,Wunderground v.1.12,2013-12-26 12:23:00,
2013-12-26 07:24:00,25.6,22.8,30.26,WSW,240,3.0,8.0,89,0.00,,,0.00,Wunderground v.1.12,2013-12-26 12:24:00,
2013-12-26 07:25:00,25.6,22.8,30.26,West,269,3.0,4.0,89,0.00,,,0.00,Wunderground v.1.12,2013-12-26 12:25:00,
2013-12-26 07:27:00,25.7,22.9,30.26,West,277,5.0,9.0,89,0.00,,,0.00,Wunderground v.1.12,2013-12-26 12:27:00,
2013-12-26 07:28:00,25.7,22.6,30.27,West,262,2.0,9.0,88,0.00,,,0.00,Wunderground v.1.12,2013-12-26 12:28:00,
2013-12-26 07:29:00,25.7,22.6,30.26,West,281,3.0,9.0,88,0.00,,,0.00,Wunderground v.1.12,2013-12-26 12:29:00,
2013-12-26 07:30:00,25.7,22.6,30.26,West,266,1.0,4.0,88,0.00,,,0.00,Wunderground v.1.12,2013-12-26 12:30:00,
2013-12-26 07:32:00,25.7,22.6,30.26,West,281,3.0,7.0,88,0.00,,,0.00,Wunderground v.1.12,2013-12-26 12:32:00,
2013-12-26 07:33:00,25.7,22.6,30.26,West,276,2.0,7.0,88,0.00,,,0.00,Wunderground v.1.12,2013-12-26 12:33:00,
2013-12-26 07:34:00,25.8,22.7,30.26,West,281,4.0,7.0,88,0.00,,,0.00,Wunderground v.1.12,2013-12-26 12:34:00,
2013-12-26 07:35:00,25.8,22.7,30.26,WNW,288,4.0,5.0,88,0.00,,,0.00,Wunderground v.1.12,2013-12-26 12:35:00,
2013-12-26 07:37:00,25.8,22.7,30.26,West,276,2.0,5.0,88,0.00,,,0.00,Wunderground v.1.12,2013-12-26 12:37:00,
2013-12-26 07:38:00,25.8,22.7,30.26,WSW,253,4.0,5.0,88,0.00,,,0.00,Wunderground v.1.12,2013-12-26 12:38:00,
2013-12-26 07:39:00,25.9,22.8,30.26,WNW,285,2.0,5.0,88,0.00,,,0.00,Wunderground v.1.12,2013-12-26 12:39:00,
2013-12-26 07:40:00,25.8,22.7,30.26,WSW,240,1.0,3.0,88,0.00,,,0.00,Wunderground v.1.12,2013-12-26 12:40:00,
2013-12-26 07:42:00,25.9,22.8,30.26,WSW,258,1.0,4.0,88,0.00,,,0.00,Wunderground v.1.12,2013-12-26 12:42:00,
2013-12-26 07:43:00,25.9,22.8,30.26,SW,232,3.0,5.0,88,0.00,,,0.00,Wunderground v.1.12,2013-12-26 12:43:00,
2013-12-26 07:44:00,25.9,22.8,30.26,West,267,4.0,5.0,88,0.00,,,0.00,Wunderground v.1.12,2013-12-26 12:44:00,
2013-12-26 07:45:00,25.9,22.8,30.26,SW,231,2.0,5.0,88,0.00,,,0.00,Wunderground v.1.12,2013-12-26 12:45:00,
2013-12-26 07:47:00,25.9,22.8,30.27,WSW,258,4.0,6.0,88,0.00,,,0.00,Wunderground v.1.12,2013-12-26 12:47:00,
2013-12-26 07:48:00,25.9,22.8,30.26,SW,215,1.0,6.0,88,0.00,,,0.00,Wunderground v.1.12,2013-12-26 12:48:00,
2013-12-26 07:49:00,26.0,22.9,30.27,West,276,7.0,7.0,88,0.00,,,0.00,Wunderground v.1.12,2013-12-26 12:49:00,
2013-12-26 07:50:00,26.0,22.9,30.27,West,267,7.0,9.0,88,0.00,,,0.00,Wunderground v.1.12,2013-12-26 12:50:00,
2013-12-26 07:51:00,26.0,22.9,30.27,West,280,8.0,9.0,88,0.00,,,0.00,Wunderground v.1.12,2013-12-26 12:51:00,
2013-12-26 07:52:00,26.1,23.0,30.27,West,263,5.0,9.0,88,0.00,,,0.00,Wunderground v.1.12,2013-12-26 12:52:00,
2013-12-26 07:53:00,26.0,22.9,30.27,WSW,249,3.0,9.0,88,0.00,,,0.00,Wunderground v.1.12,2013-12-26 12:53:00,
2013-12-26 07:55:00,26.1,23.0,30.27,WSW,258,8.0,8.0,88,0.00,,,0.00,Wunderground v.1.12,2013-12-26 12:55:00,
2013-12-26 07:57:00,26.1,23.0,30.26,WSW,245,3.0,9.0,88,0.00,,,0.00,Wunderground v.1.12,2013-12-26 12:57:00,
2013-12-26 07:58:00,26.1,23.0,30.26,SSW,205,1.0,9.0,88,0.00,,,0.00,Wunderground v.1.12,2013-12-26 12:58:00,
2013-12-26 07:59:00,26.2,23.1,30.26,WSW,252,3.0,5.0,88,0.00,,,0.00,Wunderground v.1.12,2013-12-26 12:59:00,
2013-12-26 08:00:00,26.1,23.0,30.26,WNW,284,2.0,5.0,88,0.00,,,0.00,Wunderground v.1.12,2013-12-26 13:00:00,
2013-12-26 08:01:00,26.1,23.0,30.26,West,273,6.0,8.0,88,0.00,,,0.00,Wunderground v.1.12,2013-12-26 13:01:00,
2013-12-26 08:02:00,26.2,23.1,30.26,WSW,253,7.0,8.0,88,0.00,,,0.00,Wunderground v.1.12,2013-12-26 13:02:00,
2013-12-26 08:03:00,26.2,23.1,30.27,West,271,4.0,8.0,88,0.00,,,0.00,Wunderground v.1.12,2013-12-26 13:03:00,
2013-12-26 08:04:00,26.2,23.1,30.26,West,280,3.0,4.0,88,0.00,,,0.00,Wunderground v.1.12,2013-12-26 13:04:00,
2013-12-26 08:05:00,26.2,23.1,30.26,SW,221,0.0,4.0,88,0.00,,,0.00,Wunderground v.1.12,2013-12-26 13:05:00,
2013-12-26 08:08:00,26.2,23.1,30.27,West,278,3.0,6.0,88,0.00,,,0.00,Wunderground v.1.12,2013-12-26 13:08:00,
2013-12-26 08:09:00,26.3,23.2,30.26,SW,232,3.0,3.0,88,0.00,,,0.00,Wunderground v.1.12,2013-12-26 13:09:00,
2013-12-26 08:10:00,26.3,23.2,30.27,WSW,246,1.0,3.0,88,0.00,,,0.00,Wunderground v.1.12,2013-12-26 13:10:00,
2013-12-26 08:11:00,26.3,23.2,30.27,WSW,250,4.0,6.0,88,0.00,,,0.00,Wunderground v.1.12,2013-12-26 13:11:00,
2013-12-26 08:13:00,26.3,23.2,30.27,West,278,6.0,7.0,88,0.00,,,0.00,Wunderground v.1.12,2013-12-26 13:13:00,
2013-12-26 08:14:00,26.3,23.2,30.26,West,277,6.0,7.0,88,0.00,,,0.00,Wunderground v.1.12,2013-12-26 13:14:00,
2013-12-26 08:15:00,26.3,23.2,30.26,WSW,252,1.0,3.0,88,0.00,,,0.00,Wunderground v.1.12,2013-12-26 13:15:00,
2013-12-26 08:16:00,26.3,23.2,30.26,SSW,204,2.0,3.0,88,0.00,,,0.00,Wunderground v.1.12,2013-12-26 13:16:00,
2013-12-26 08:18:00,26.3,23.2,30.26,West,267,2.0,8.0,88,0.00,,,0.00,Wunderground v.1.12,2013-12-26 13:18:00,
2013-12-26 08:19:00,26.3,23.2,30.26,WSW,250,5.0,6.0,88,0.00,,,0.00,Wunderground v.1.12,2013-12-26 13:19:00,
2013-12-26 08:20:00,26.3,23.2,30.26,WSW,243,3.0,6.0,88,0.00,,,0.00,Wunderground v.1.12,2013-12-26 13:20:00,
2013-12-26 08:21:00,26.3,23.2,30.27,West,263,1.0,6.0,88,0.00,,,0.00,Wunderground v.1.12,2013-12-26 13:21:00,
2013-12-26 08:23:00,26.4,23.3,30.27,SW,236,4.0,8.0,88,0.00,,,0.00,Wunderground v.1.12,2013-12-26 13:23:00,
2013-12-26 08:24:00,26.4,23.3,30.27,WSW,256,5.0,5.0,88,0.00,,,0.00,Wunderground v.1.12,2013-12-26 13:24:00,
2013-12-26 08:25:00,26.4,23.3,30.27,West,273,4.0,5.0,88,0.00,,,0.00,Wunderground v.1.12,2013-12-26 13:25:00,
2013-12-26 08:26:00,26.4,23.3,30.27,SW,235,2.0,5.0,88,0.00,,,0.00,Wunderground v.1.12,2013-12-26 13:26:00,
2013-12-26 08:28:00,26.4,23.3,30.27,NW,308,1.0,5.0,88,0.00,,,0.00,Wunderground v.1.12,2013-12-26 13:28:00,
2013-12-26 08:29:00,26.4,23.3,30.27,WNW,290,5.0,5.0,88,0.00,,,0.00,Wunderground v.1.12,2013-12-26 13:29:00,
2013-12-26 08:30:00,26.4,23.3,30.27,WNW,283,6.0,9.0,88,0.00,,,0.00,Wunderground v.1.12,2013-12-26 13:30:00,
2013-12-26 08:31:00,26.4,23.3,30.27,West,281,3.0,9.0,88,0.00,,,0.00,Wunderground v.1.12,2013-12-26 13:31:00,
2013-12-26 08:32:00,26.4,23.3,30.27,WSW,256,4.0,9.0,88,0.00,,,0.00,Wunderground v.1.12,2013-12-26 13:32:00,
2013-12-26 08:33:00,26.5,23.4,30.27,SW,226,3.0,9.0,88,0.00,,,0.00,Wunderground v.1.12,2013-12-26 13:33:00,
2013-12-26 08:34:00,26.5,23.4,30.27,WSW,252,2.0,4.0,88,0.00,,,0.00,Wunderground v.1.12,2013-12-26 13:34:00,
2013-12-26 08:35:00,26.5,23.4,30.27,WNW,283,4.0,5.0,88,0.00,,,0.00,Wunderground v.1.12,2013-12-26 13:35:00,
2013-12-26 08:36:00,26.5,23.4,30.27,West,274,2.0,5.0,88,0.00,,,0.00,Wunderground v.1.12,2013-12-26 13:36:00,
2013-12-26 08:37:00,26.5,23.4,30.27,WNW,284,2.0,5.0,88,0.00,,,0.00,Wunderground v.1.12,2013-12-26 13:37:00,
2013-12-26 08:38:00,26.5,23.4,30.27,West,276,2.0,5.0,88,0.00,,,0.00,Wunderground v.1.12,2013-12-26 13:38:00,
2013-12-26 08:39:00,26.5,23.4,30.27,WNW,291,2.0,3.0,88,0.00,,,0.00,Wunderground v.1.12,2013-12-26 13:39:00,
2013-12-26 08:40:00,26.5,23.4,30.27,WNW,285,6.0,8.0,88,0.00,,,0.00,Wunderground v.1.12,2013-12-26 13:40:00,
2013-12-26 08:41:00,26.5,23.4,30.27,WNW,287,4.0,8.0,88,0.00,,,0.00,Wunderground v.1.12,2013-12-26 13:41:00,
2013-12-26 08:42:00,26.5,23.4,30.27,WNW,292,3.0,8.0,88,0.00,,,0.00,Wunderground v.1.12,2013-12-26 13:42:00,
2013-12-26 08:43:00,26.6,23.5,30.27,WNW,288,4.0,10.0,88,0.00,,,0.00,Wunderground v.1.12,2013-12-26 13:43:00,
2013-12-26 08:45:00,26.7,23.6,30.27,WSW,253,5.0,7.0,88,0.00,,,0.00,Wunderground v.1.12,2013-12-26 13:45:00,
2013-12-26 08:46:00,26.7,23.6,30.27,West,271,4.0,7.0,88,0.00,,,0.00,Wunderground v.1.12,2013-12-26 13:46:00,
2013-12-26 08:47:00,26.7,23.6,30.27,WNW,297,3.0,7.0,88,0.00,,,0.00,Wunderground v.1.12,2013-12-26 13:47:00,
2013-12-26 08:49:00,26.7,23.6,30.27,West,271,3.0,7.0,88,0.00,,,0.00,Wunderground v.1.12,2013-12-26 13:49:00,
2013-12-26 08:50:00,26.7,23.6,30.27,West,277,4.0,5.0,88,0.00,,,0.00,Wunderground v.1.12,2013-12-26 13:50:00,
2013-12-26 08:51:00,26.7,23.6,30.27,West,278,3.0,6.0,88,0.00,,,0.00,Wunderground v.1.12,2013-12-26 13:51:00,
2013-12-26 08:52:00,26.7,23.6,30.27,WSW,239,3.0,6.0,88,0.00,,,0.00,Wunderground v.1.12,2013-12-26 13:52:00,
2013-12-26 08:54:00,26.7,23.6,30.27,West,265,4.0,7.0,88,0.00,,,0.00,Wunderground v.1.12,2013-12-26 13:54:00,
2013-12-26 08:56:00,26.7,23.6,30.27,WSW,254,4.0,8.0,88,0.00,,,0.00,Wunderground v.1.12,2013-12-26 13:56:00,
2013-12-26 08:58:00,26.8,23.7,30.27,West,270,3.0,8.0,88,0.00,,,0.00,Wunderground v.1.12,2013-12-26 13:58:00,
2013-12-26 08:59:00,26.8,23.7,30.27,West,272,9.0,9.0,88,0.00,,,0.00,Wunderground v.1.12,2013-12-26 13:59:00,
2013-12-26 09:01:00,26.8,24.0,30.27,WNW,285,5.0,6.0,89,0.00,,,0.00,Wunderground v.1.12,2013-12-26 14:01:00,
2013-12-26 09:02:00,26.8,24.0,30.27,West,278,0.0,6.0,89,0.00,,,0.00,Wunderground v.1.12,2013-12-26 14:02:00,
2013-12-26 09:03:00,26.8,24.0,30.27,West,277,3.0,6.0,89,0.00,,,0.00,Wunderground v.1.12,2013-12-26 14:03:00,
2013-12-26 09:04:00,26.8,24.0,30.27,WNW,297,4.0,6.0,89,0.00,,,0.00,Wunderground v.1.12,2013-12-26 14:04:00,
2013-12-26 09:06:00,26.8,24.0,30.27,WNW,302,2.0,6.0,89,0.00,,,0.00,Wunderground v.1.12,2013-12-26 14:06:00,
2013-12-26 09:07:00,26.8,24.0,30.27,WNW,302,3.0,6.0,89,0.00,,,0.00,Wunderground v.1.12,2013-12-26 14:07:00,
2013-12-26 09:08:00,26.8,24.0,30.27,West,277,2.0,6.0,89,0.00,,,0.00,Wunderground v.1.12,2013-12-26 14:08:00,
2013-12-26 09:09:00,26.8,24.0,30.27,WNW,295,6.0,8.0,89,0.00,,,0.00,Wunderground v.1.12,2013-12-26 14:09:00,
2013-12-26 09:11:00,26.7,24.2,30.27,West,264,5.0,6.0,90,0.00,,,0.00,Wunderground v.1.12,2013-12-26 14:11:00,
2013-12-26 09:12:00,26.8,24.3,30.27,WSW,252,3.0,6.0,90,0.00,,,0.00,Wunderground v.1.12,2013-12-26 14:12:00,
2013-12-26 09:13:00,26.7,24.2,30.27,NW,309,6.0,6.0,90,0.00,,,0.00,Wunderground v.1.12,2013-12-26 14:13:00,
2013-12-26 09:14:00,26.8,24.3,30.28,West,277,4.0,6.0,90,0.00,,,0.00,Wunderground v.1.12,2013-12-26 14:14:00,
2013-12-26 09:16:00,26.8,24.3,30.28,WNW,288,4.0,5.0,90,0.00,,,0.00,Wunderground v.1.12,2013-12-26 14:16:00,
2013-12-26 09:17:00,26.7,24.2,30.28,NW,315,3.0,5.0,90,0.00,,,0.00,Wunderground v.1.12,2013-12-26 14:17:00,
2013-12-26 09:18:00,26.8,24.3,30.28,West,278,3.0,8.0,90,0.00,,,0.00,Wunderground v.1.12,2013-12-26 14:18:00,
2013-12-26 09:19:00,26.7,24.2,30.28,WSW,257,3.0,8.0,90,0.00,,,0.00,Wunderground v.1.12,2013-12-26 14:19:00,
2013-12-26 09:22:00,26.7,24.2,30.28,West,270,2.0,4.0,90,0.00,,,0.00,Wunderground v.1.12,2013-12-26 14:22:00,
2013-12-26 09:23:00,26.7,24.4,30.28,WNW,290,3.0,8.0,91,0.00,,,0.00,Wunderground v.1.12,2013-12-26 14:23:00,
2013-12-26 09:24:00,26.7,24.4,30.28,NW,311,5.0,8.0,91,0.00,,,0.00,Wunderground v.1.12,2013-12-26 14:24:00,
2013-12-26 09:27:00,26.7,24.4,30.28,NNE,15,3.0,5.0,91,0.00,,,0.00,Wunderground v.1.12,2013-12-26 14:27:00,
2013-12-26 09:28:00,26.8,24.5,30.29,NW,311,0.0,6.0,91,0.00,,,0.00,Wunderground v.1.12,2013-12-26 14:28:00,
2013-12-26 09:29:00,26.7,24.4,30.29,WNW,300,1.0,6.0,91,0.00,,,0.00,Wunderground v.1.12,2013-12-26 14:29:00,
2013-12-26 09:32:00,26.7,24.4,30.29,NW,316,0.0,4.0,91,0.00,,,0.00,Wunderground v.1.12,2013-12-26 14:32:00,
2013-12-26 09:34:00,26.7,24.4,30.29,NNW,335,2.0,4.0,91,0.00,,,0.00,Wunderground v.1.12,2013-12-26 14:34:00,
2013-12-26 09:37:00,26.7,24.4,30.29,WNW,300,0.0,2.0,91,0.00,,,0.00,Wunderground v.1.12,2013-12-26 14:37:00,
2013-12-26 09:39:00,26.7,24.4,30.29,WSW,256,4.0,4.0,91,0.00,,,0.00,Wunderground v.1.12,2013-12-26 14:39:00,
2013-12-26 09:42:00,26.7,24.4,30.29,WNW,291,1.0,4.0,91,0.00,,,0.00,Wunderground v.1.12,2013-12-26 14:42:00,
2013-12-26 09:44:00,26.7,24.7,30.29,WNW,284,3.0,5.0,92,0.00,,,0.00,Wunderground v.1.12,2013-12-26 14:44:00,
2013-12-26 09:47:00,26.7,24.7,30.29,West,271,5.0,7.0,92,0.00,,,0.00,Wunderground v.1.12,2013-12-26 14:47:00,
2013-12-26 09:48:00,26.7,24.7,30.29,WNW,295,1.0,7.0,92,0.00,,,0.00,Wunderground v.1.12,2013-12-26 14:48:00,
2013-12-26 09:49:00,26.7,24.7,30.29,NW,304,4.0,4.0,92,0.00,,,0.00,Wunderground v.1.12,2013-12-26 14:49:00,
2013-12-26 09:50:00,26.7,24.7,30.29,WSW,253,4.0,6.0,92,0.00,,,0.00,Wunderground v.1.12,2013-12-26 14:50:00,
2013-12-26 09:52:00,26.7,24.7,30.29,NW,320,4.0,8.0,92,0.00,,,0.00,Wunderground v.1.12,2013-12-26 14:52:00,
2013-12-26 09:53:00,26.7,24.7,30.29,NW,323,1.0,8.0,92,0.00,,,0.00,Wunderground v.1.12,2013-12-26 14:53:00,
2013-12-26 09:54:00,26.7,24.7,30.29,NNE,12,3.0,5.0,92,0.00,,,0.00,Wunderground v.1.12,2013-12-26 14:54:00,
2013-12-26 09:55:00,26.8,24.8,30.29,WNW,294,2.0,5.0,92,0.00,,,0.00,Wunderground v.1.12,2013-12-26 14:55:00,
2013-12-26 09:57:00,26.8,24.8,30.30,WNW,300,5.0,5.0,92,0.00,,,0.00,Wunderground v.1.12,2013-12-26 14:57:00,
2013-12-26 09:58:00,26.8,24.8,30.30,WNW,300,3.0,5.0,92,0.00,,,0.00,Wunderground v.1.12,2013-12-26 14:58:00,
2013-12-26 09:59:00,26.9,24.9,30.30,WSW,240,1.0,3.0,92,0.00,,,0.00,Wunderground v.1.12,2013-12-26 14:59:00,
2013-12-26 10:00:00,26.9,24.9,30.29,WNW,300,6.0,6.0,92,0.00,,,0.00,Wunderground v.1.12,2013-12-26 15:00:00,
2013-12-26 10:02:00,27.0,25.0,30.30,ENE,64,2.0,6.0,92,0.00,,,0.00,Wunderground v.1.12,2013-12-26 15:02:00,
2013-12-26 10:03:00,27.0,25.0,30.30,NW,304,4.0,6.0,92,0.00,,,0.00,Wunderground v.1.12,2013-12-26 15:03:00,
2013-12-26 10:04:00,27.1,24.8,30.30,North,4,3.0,3.0,91,0.00,,,0.00,Wunderground v.1.12,2013-12-26 15:04:00,
2013-12-26 10:05:00,27.1,24.8,30.29,NW,309,3.0,6.0,91,0.00,,,0.00,Wunderground v.1.12,2013-12-26 15:05:00,
2013-12-26 10:07:00,27.2,24.7,30.30,North,360,1.0,8.0,90,0.00,,,0.00,Wunderground v.1.12,2013-12-26 15:07:00,
2013-12-26 10:08:00,27.2,24.7,30.30,NE,34,2.0,8.0,90,0.00,,,0.00,Wunderground v.1.12,2013-12-26 15:08:00,
2013-12-26 10:10:00,27.3,24.8,30.30,NW,316,1.0,4.0,90,0.00,,,0.00,Wunderground v.1.12,2013-12-26 15:10:00,
2013-12-26 10:11:00,27.3,24.8,30.29,NNW,347,4.0,6.0,90,0.00,,,0.00,Wunderground v.1.12,2013-12-26 15:11:00,
2013-12-26 10:12:00,27.4,24.9,30.29,NNE,33,2.0,12.0,90,0.00,,,0.00,Wunderground v.1.12,2013-12-26 15:12:00,
2013-12-26 10:13:00,27.4,24.9,30.29,NNE,12,2.0,12.0,90,0.00,,,0.00,Wunderground v.1.12,2013-12-26 15:13:00,
2013-12-26 10:14:00,27.5,24.7,30.29,West,281,4.0,12.0,89,0.00,,,0.00,Wunderground v.1.12,2013-12-26 15:14:00,
2013-12-26 10:15:00,27.5,24.7,30.29,WNW,300,2.0,5.0,89,0.00,,,0.00,Wunderground v.1.12,2013-12-26 15:15:00,
2013-12-26 10:16:00,27.5,24.7,30.29,NW,305,3.0,8.0,89,0.00,,,0.00,Wunderground v.1.12,2013-12-26 15:16:00,
2013-12-26 10:18:00,27.6,24.5,30.29,NW,316,1.0,8.0,88,0.00,,,0.00,Wunderground v.1.12,2013-12-26 15:18:00,
2013-12-26 10:19:00,27.6,24.5,30.30,NE,43,2.0,8.0,88,0.00,,,0.00,Wunderground v.1.12,2013-12-26 15:19:00,
2013-12-26 10:20:00,27.6,24.5,30.29,NNW,328,2.0,3.0,88,0.00,,,0.00,Wunderground v.1.12,2013-12-26 15:20:00,
2013-12-26 10:21:00,27.6,24.5,30.29,NNE,19,5.0,6.0,88,0.00,,,0.00,Wunderground v.1.12,2013-12-26 15:21:00,
2013-12-26 10:23:00,27.7,24.6,30.30,North,356,2.0,11.0,88,0.00,,,0.00,Wunderground v.1.12,2013-12-26 15:23:00,
2013-12-26 10:24:00,27.7,24.3,30.30,West,274,3.0,11.0,87,0.00,,,0.00,Wunderground v.1.12,2013-12-26 15:24:00,
2013-12-26 10:25:00,27.8,24.4,30.29,NE,53,8.0,11.0,87,0.00,,,0.00,Wunderground v.1.12,2013-12-26 15:25:00,
2013-12-26 10:26:00,27.8,24.4,30.29,North,9,1.0,11.0,87,0.00,,,0.00,Wunderground v.1.12,2013-12-26 15:26:00,
2013-12-26 10:28:00,27.8,24.4,30.30,WSW,249,3.0,11.0,87,0.00,,,0.00,Wunderground v.1.12,2013-12-26 15:28:00,
2013-12-26 10:29:00,27.7,24.3,30.30,WNW,293,5.0,11.0,87,0.00,,,0.00,Wunderground v.1.12,2013-12-26 15:29:00,
2013-12-26 10:30:00,27.7,24.1,30.30,WNW,288,7.0,8.0,86,0.00,,,0.00,Wunderground v.1.12,2013-12-26 15:30:00,
2013-12-26 10:31:00,27.7,24.3,30.30,WSW,238,3.0,8.0,87,0.00,,,0.00,Wunderground v.1.12,2013-12-26 15:31:00,
2013-12-26 10:33:00,27.6,24.2,30.30,NW,322,2.0,15.0,87,0.00,,,0.00,Wunderground v.1.12,2013-12-26 15:33:00,
2013-12-26 10:34:00,27.6,24.2,30.30,SSW,200,2.0,15.0,87,0.00,,,0.00,Wunderground v.1.12,2013-12-26 15:34:00,
2013-12-26 10:35:00,27.6,24.2,30.30,NW,304,7.0,8.0,87,0.00,,,0.00,Wunderground v.1.12,2013-12-26 15:35:00,
2013-12-26 10:37:00,27.5,24.1,30.30,NW,307,4.0,10.0,87,0.00,,,0.00,Wunderground v.1.12,2013-12-26 15:37:00,
2013-12-26 10:38:00,27.5,24.1,30.30,WNW,295,5.0,10.0,87,0.00,,,0.00,Wunderground v.1.12,2013-12-26 15:38:00,
2013-12-26 10:39:00,27.5,24.1,30.30,WNW,302,4.0,10.0,87,0.00,,,0.00,Wunderground v.1.12,2013-12-26 15:39:00,
2013-12-26 10:40:00,27.4,24.0,30.30,NW,304,4.0,7.0,87,0.00,,,0.00,Wunderground v.1.12,2013-12-26 15:40:00,
2013-12-26 10:42:00,27.3,24.2,30.29,NNW,328,3.0,12.0,88,0.00,,,0.00,Wunderground v.1.12,2013-12-26 15:42:00,
2013-12-26 10:43:00,27.3,24.2,30.29,WNW,297,6.0,12.0,88,0.00,,,0.00,Wunderground v.1.12,2013-12-26 15:43:00,
2013-12-26 10:44:00,27.3,24.2,30.29,WNW,294,2.0,4.0,88,0.00,,,0.00,Wunderground v.1.12,2013-12-26 15:44:00,
2013-12-26 10:45:00,27.3,24.2,30.29,ESE,110,1.0,4.0,88,0.00,,,0.00,Wunderground v.1.12,2013-12-26 15:45:00,
2013-12-26 10:48:00,27.2,24.1,30.29,West,276,2.0,9.0,88,0.00,,,0.00,Wunderground v.1.12,2013-12-26 15:48:00,
2013-12-26 10:50:00,27.3,24.2,30.29,ESE,103,1.0,3.0,88,0.00,,,0.00,Wunderground v.1.12,2013-12-26 15:50:00,
2013-12-26 10:53:00,27.6,24.5,30.29,ESE,107,2.0,10.0,88,0.00,,,0.00,Wunderground v.1.12,2013-12-26 15:53:00,
2013-12-26 10:55:00,27.9,24.5,30.29,North,352,1.0,4.0,87,0.00,,,0.00,Wunderground v.1.12,2013-12-26 15:55:00,
2013-12-26 10:56:00,28.1,24.5,30.29,WNW,284,5.0,5.0,86,0.00,,,0.00,Wunderground v.1.12,2013-12-26 15:56:00,
2013-12-26 10:58:00,28.2,24.3,30.29,NE,37,3.0,7.0,85,0.00,,,0.00,Wunderground v.1.12,2013-12-26 15:58:00,
2013-12-26 10:59:00,28.4,24.5,30.29,NW,304,3.0,8.0,85,0.00,,,0.00,Wunderground v.1.12,2013-12-26 15:59:00,
2013-12-26 11:00:00,28.4,23.9,30.29,NNE,31,1.0,7.0,83,0.00,,,0.00,Wunderground v.1.12,2013-12-26 16:00:00,
2013-12-26 11:01:00,28.5,24.0,30.29,NE,41,3.0,10.0,83,0.00,,,0.00,Wunderground v.1.12,2013-12-26 16:01:00,
2013-12-26 11:03:00,28.7,24.2,30.29,NW,304,4.0,10.0,83,0.00,,,0.00,Wunderground v.1.12,2013-12-26 16:03:00,
2013-12-26 11:04:00,28.7,23.9,30.29,North,11,3.0,10.0,82,0.00,,,0.00,Wunderground v.1.12,2013-12-26 16:04:00,
2013-12-26 11:05:00,28.7,23.9,30.29,ENE,63,6.0,7.0,82,0.00,,,0.00,Wunderground v.1.12,2013-12-26 16:05:00,
2013-12-26 11:06:00,28.8,23.7,30.29,WNW,294,4.0,8.0,81,0.00,,,0.00,Wunderground v.1.12,2013-12-26 16:06:00,
2013-12-26 11:08:00,28.8,23.4,30.28,North,4,6.0,10.0,80,0.00,,,0.00,Wunderground v.1.12,2013-12-26 16:08:00,
2013-12-26 11:09:00,28.8,23.4,30.28,NNE,15,2.0,10.0,80,0.00,,,0.00,Wunderground v.1.12,2013-12-26 16:09:00,
2013-12-26 11:10:00,28.8,23.4,30.28,NW,305,1.0,4.0,80,0.00,,,0.00,Wunderground v.1.12,2013-12-26 16:10:00,
2013-12-26 11:11:00,28.9,23.8,30.28,SW,236,2.0,7.0,81,0.00,,,0.00,Wunderground v.1.12,2013-12-26 16:11:00,
2013-12-26 11:12:00,29.0,23.6,30.28,WNW,295,3.0,7.0,80,0.00,,,0.00,Wunderground v.1.12,2013-12-26 16:12:00,
2013-12-26 11:13:00,29.0,23.3,30.29,NNE,27,12.0,15.0,79,0.00,,,0.00,Wunderground v.1.12,2013-12-26 16:13:00,
2013-12-26 11:14:00,29.0,23.3,30.28,North,11,14.0,19.0,79,0.00,,,0.00,Wunderground v.1.12,2013-12-26 16:14:00,
2013-12-26 11:15:00,29.0,23.0,30.29,NW,322,10.0,10.0,78,0.00,,,0.00,Wunderground v.1.12,2013-12-26 16:15:00,
2013-12-26 11:16:00,29.0,23.0,30.28,NW,304,4.0,13.0,78,0.00,,,0.00,Wunderground v.1.12,2013-12-26 16:16:00,
2013-12-26 11:17:00,29.0,23.0,30.28,West,274,2.0,13.0,78,0.00,,,0.00,Wunderground v.1.12,2013-12-26 16:17:00,
2013-12-26 11:19:00,29.0,23.3,30.28,NW,307,1.0,22.0,79,0.00,,,0.00,Wunderground v.1.12,2013-12-26 16:19:00,
2013-12-26 11:21:00,29.1,23.1,30.28,NNE,27,2.0,10.0,78,0.00,,,0.00,Wunderground v.1.12,2013-12-26 16:21:00,
2013-12-26 11:22:00,29.2,23.2,30.28,NNW,344,4.0,10.0,78,0.00,,,0.00,Wunderground v.1.12,2013-12-26 16:22:00,
2013-12-26 11:24:00,29.2,22.9,30.28,NW,318,4.0,10.0,77,0.00,,,0.00,Wunderground v.1.12,2013-12-26 16:24:00,
2013-12-26 11:26:00,29.1,22.5,30.29,NW,311,3.0,12.0,76,0.00,,,0.00,Wunderground v.1.12,2013-12-26 16:26:00,
2013-12-26 11:28:00,29.0,22.7,30.28,NNW,338,4.0,12.0,77,0.00,,,0.00,Wunderground v.1.12,2013-12-26 16:28:00,
2013-12-26 11:29:00,29.0,22.4,30.28,WNW,297,6.0,6.0,76,0.00,,,0.00,Wunderground v.1.12,2013-12-26 16:29:00,
2013-12-26 11:30:00,28.9,22.3,30.28,NE,40,10.0,10.0,76,0.00,,,0.00,Wunderground v.1.12,2013-12-26 16:30:00,
2013-12-26 11:31:00,28.9,22.3,30.28,NE,47,3.0,13.0,76,0.00,,,0.00,Wunderground v.1.12,2013-12-26 16:31:00,
2013-12-26 11:32:00,28.9,22.6,30.28,WNW,294,8.0,13.0,77,0.00,,,0.00,Wunderground v.1.12,2013-12-26 16:32:00,
2013-12-26 11:33:00,28.8,22.2,30.28,North,1,12.0,19.0,76,0.00,,,0.00,Wunderground v.1.12,2013-12-26 16:33:00,
2013-12-26 11:34:00,28.7,22.4,30.28,NW,312,3.0,6.0,77,0.00,,,0.00,Wunderground v.1.12,2013-12-26 16:34:00,
2013-12-26 11:35:00,28.7,22.4,30.27,NW,306,12.0,12.0,77,0.00,,,0.00,Wunderground v.1.12,2013-12-26 16:35:00,
2013-12-26 11:36:00,28.6,22.3,30.28,NW,323,6.0,15.0,77,0.00,,,0.00,Wunderground v.1.12,2013-12-26 16:36:00,
2013-12-26 11:37:00,28.5,22.2,30.28,WNW,301,5.0,15.0,77,0.00,,,0.00,Wunderground v.1.12,2013-12-26 16:37:00,
2013-12-26 11:38:00,28.5,22.2,30.28,West,280,2.0,15.0,77,0.00,,,0.00,Wunderground v.1.12,2013-12-26 16:38:00,
2013-12-26 11:39:00,28.4,22.1,30.28,WNW,294,5.0,6.0,77,0.00,,,0.00,Wunderground v.1.12,2013-12-26 16:39:00,
2013-12-26 11:40:00,28.4,22.1,30.28,NNW,343,6.0,10.0,77,0.00,,,0.00,Wunderground v.1.12,2013-12-26 16:40:00,
2013-12-26 11:41:00,28.4,22.1,30.28,NNW,335,2.0,10.0,77,0.00,,,0.00,Wunderground v.1.12,2013-12-26 16:41:00,
2013-12-26 11:42:00,28.4,22.1,30.28,NNE,31,4.0,10.0,77,0.00,,,0.00,Wunderground v.1.12,2013-12-26 16:42:00,
2013-12-26 11:44:00,28.4,22.4,30.29,NNW,348,4.0,10.0,78,0.00,,,0.00,Wunderground v.1.12,2013-12-26 16:44:00,
2013-12-26 11:45:00,28.4,22.4,30.29,WSW,249,2.0,5.0,78,0.00,,,0.00,Wunderground v.1.12,2013-12-26 16:45:00,
2013-12-26 11:46:00,28.4,22.4,30.29,East,79,1.0,5.0,78,0.00,,,0.00,Wunderground v.1.12,2013-12-26 16:46:00,
2013-12-26 11:47:00,28.4,22.4,30.28,NW,304,3.0,16.0,78,0.00,,,0.00,Wunderground v.1.12,2013-12-26 16:47:00,
2013-12-26 11:49:00,28.4,22.4,30.29,ENE,58,4.0,16.0,78,0.00,,,0.00,Wunderground v.1.12,2013-12-26 16:49:00,
2013-12-26 11:50:00,28.5,22.8,30.29,North,350,4.0,10.0,79,0.00,,,0.00,Wunderground v.1.12,2013-12-26 16:50:00,
2013-12-26 11:51:00,28.5,22.5,30.29,West,272,2.0,10.0,78,0.00,,,0.00,Wunderground v.1.12,2013-12-26 16:51:00,
2013-12-26 11:52:00,28.5,22.8,30.28,NNE,32,5.0,13.0,79,0.00,,,0.00,Wunderground v.1.12,2013-12-26 16:52:00,
2013-12-26 11:54:00,28.6,22.6,30.29,WNW,300,8.0,13.0,78,0.00,,,0.00,Wunderground v.1.12,2013-12-26 16:54:00,
2013-12-26 11:55:00,28.6,22.6,30.28,East,81,4.0,13.0,78,0.00,,,0.00,Wunderground v.1.12,2013-12-26 16:55:00,
2013-12-26 11:56:00,28.7,22.7,30.29,NW,309,1.0,13.0,78,0.00,,,0.00,Wunderground v.1.12,2013-12-26 16:56:00,
2013-12-26 11:57:00,28.7,22.7,30.29,WNW,294,3.0,13.0,78,0.00,,,0.00,Wunderground v.1.12,2013-12-26 16:57:00,
2013-12-26 11:59:00,28.8,22.5,30.28,West,263,3.0,13.0,77,0.00,,,0.00,Wunderground v.1.12,2013-12-26 16:59:00,
2013-12-26 12:00:00,28.9,22.6,30.28,NNW,335,9.0,9.0,77,0.00,,,0.00,Wunderground v.1.12,2013-12-26 17:00:00,
2013-12-26 12:01:00,28.9,22.3,30.28,NNW,329,5.0,10.0,76,0.00,,,0.00,Wunderground v.1.12,2013-12-26 17:01:00,
2013-12-26 12:02:00,28.9,22.3,30.29,NNW,339,1.0,10.0,76,0.00,,,0.00,Wunderground v.1.12,2013-12-26 17:02:00,
2013-12-26 12:04:00,28.9,22.0,30.28,NW,316,3.0,4.0,75,0.00,,,0.00,Wunderground v.1.12,2013-12-26 17:04:00,
2013-12-26 12:06:00,28.9,22.3,30.29,NW,312,3.0,8.0,76,0.00,,,0.00,Wunderground v.1.12,2013-12-26 17:06:00,
2013-12-26 12:07:00,28.8,22.2,30.28,NW,305,9.0,9.0,76,0.00,,,0.00,Wunderground v.1.12,2013-12-26 17:07:00,
2013-12-26 12:08:00,28.7,21.8,30.28,NNW,342,1.0,9.0,75,0.00,,,0.00,Wunderground v.1.12,2013-12-26 17:08:00,
2013-12-26 12:09:00,28.7,21.8,30.28,NNW,347,4.0,10.0,75,0.00,,,0.00,Wunderground v.1.12,2013-12-26 17:09:00,
2013-12-26 12:10:00,28.6,21.7,30.28,NNW,347,9.0,11.0,75,0.00,,,0.00,Wunderground v.1.12,2013-12-26 17:10:00,
2013-12-26 12:11:00,28.6,21.7,30.29,NNW,334,6.0,11.0,75,0.00,,,0.00,Wunderground v.1.12,2013-12-26 17:11:00,
2013-12-26 12:12:00,28.5,21.9,30.29,NE,49,1.0,11.0,76,0.00,,,0.00,Wunderground v.1.12,2013-12-26 17:12:00,
2013-12-26 12:13:00,28.5,21.9,30.29,North,9,4.0,11.0,76,0.00,,,0.00,Wunderground v.1.12,2013-12-26 17:13:00,
2013-12-26 12:14:00,28.5,21.9,30.29,North,350,8.0,12.0,76,0.00,,,0.00,Wunderground v.1.12,2013-12-26 17:14:00,
2013-12-26 12:15:00,28.5,21.9,30.29,WNW,282,1.0,12.0,76,0.00,,,0.00,Wunderground v.1.12,2013-12-26 17:15:00,
2013-12-26 12:16:00,28.4,21.8,30.29,WNW,286,1.0,12.0,76,0.00,,,0.00,Wunderground v.1.12,2013-12-26 17:16:00,
2013-12-26 12:17:00,28.4,21.8,30.28,ESE,108,2.0,13.0,76,0.00,,,0.00,Wunderground v.1.12,2013-12-26 17:17:00,
2013-12-26 12:18:00,28.4,21.5,30.29,WNW,286,6.0,13.0,75,0.00,,,0.00,Wunderground v.1.12,2013-12-26 17:18:00,
2013-12-26 12:20:00,28.4,21.8,30.29,NE,41,3.0,4.0,76,0.00,,,0.00,Wunderground v.1.12,2013-12-26 17:20:00,
2013-12-26 12:21:00,28.4,21.8,30.29,North,1,4.0,5.0,76,0.00,,,0.00,Wunderground v.1.12,2013-12-26 17:21:00,
2013-12-26 12:23:00,28.4,21.8,30.29,North,6,4.0,5.0,76,0.00,,,0.00,Wunderground v.1.12,2013-12-26 17:23:00,
2013-12-26 12:24:00,28.4,21.8,30.29,NW,316,1.0,5.0,76,0.00,,,0.00,Wunderground v.1.12,2013-12-26 17:24:00,
2013-12-26 12:25:00,28.4,21.8,30.28,NNW,336,8.0,10.0,76,0.00,,,0.00,Wunderground v.1.12,2013-12-26 17:25:00,
2013-12-26 12:26:00,28.4,21.8,30.29,ENE,65,4.0,11.0,76,0.00,,,0.00,Wunderground v.1.12,2013-12-26 17:26:00,
2013-12-26 12:27:00,28.4,21.8,30.29,NW,312,6.0,11.0,76,0.00,,,0.00,Wunderground v.1.12,2013-12-26 17:27:00,
2013-12-26 12:28:00,28.3,21.7,30.29,ENE,57,2.0,19.0,76,0.00,,,0.00,Wunderground v.1.12,2013-12-26 17:28:00,
2013-12-26 12:29:00,28.3,21.7,30.29,East,82,1.0,19.0,76,0.00,,,0.00,Wunderground v.1.12,2013-12-26 17:29:00,
2013-12-26 12:30:00,28.3,21.4,30.29,ENE,76,2.0,7.0,75,0.00,,,0.00,Wunderground v.1.12,2013-12-26 17:30:00,
2013-12-26 12:31:00,28.3,21.4,30.29,WNW,295,2.0,7.0,75,0.00,,,0.00,Wunderground v.1.12,2013-12-26 17:31:00,
2013-12-26 12:32:00,28.4,21.8,30.28,West,266,4.0,7.0,76,0.00,,,0.00,Wunderground v.1.12,2013-12-26 17:32:00,
2013-12-26 12:34:00,28.3,21.4,30.28,WNW,294,3.0,8.0,75,0.00,,,0.00,Wunderground v.1.12,2013-12-26 17:34:00,
2013-12-26 12:35:00,28.3,21.4,30.28,West,263,4.0,4.0,75,0.00,,,0.00,Wunderground v.1.12,2013-12-26 17:35:00,
2013-12-26 12:36:00,28.4,21.5,30.28,North,352,7.0,10.0,75,0.00,,,0.00,Wunderground v.1.12,2013-12-26 17:36:00,
2013-12-26 12:37:00,28.3,21.4,30.28,NW,309,5.0,10.0,75,0.00,,,0.00,Wunderground v.1.12,2013-12-26 17:37:00,
2013-12-26 12:39:00,28.4,21.5,30.28,NW,304,3.0,3.0,75,0.00,,,0.00,Wunderground v.1.12,2013-12-26 17:39:00,
2013-12-26 12:40:00,28.3,21.4,30.28,NW,308,3.0,9.0,75,0.00,,,0.00,Wunderground v.1.12,2013-12-26 17:40:00,
2013-12-26 12:41:00,28.3,21.4,30.28,West,273,3.0,9.0,75,0.00,,,0.00,Wunderground v.1.12,2013-12-26 17:41:00,
2013-12-26 12:42:00,28.3,21.1,30.28,WNW,300,9.0,9.0,74,0.00,,,0.00,Wunderground v.1.12,2013-12-26 17:42:00,
2013-12-26 12:44:00,28.3,21.1,30.28,NW,312,7.0,7.0,74,0.00,,,0.00,Wunderground v.1.12,2013-12-26 17:44:00,
2013-12-26 12:45:00,28.3,21.1,30.28,NW,304,9.0,9.0,74,0.00,,,0.00,Wunderground v.1.12,2013-12-26 17:45:00,
2013-12-26 12:46:00,28.3,20.7,30.28,WNW,297,2.0,19.0,73,0.00,,,0.00,Wunderground v.1.12,2013-12-26 17:46:00,
2013-12-26 12:47:00,28.3,20.7,30.28,NNE,25,6.0,19.0,73,0.00,,,0.00,Wunderground v.1.12,2013-12-26 17:47:00,
2013-12-26 12:49:00,28.4,21.2,30.28,WNW,296,0.0,5.0,74,0.00,,,0.00,Wunderground v.1.12,2013-12-26 17:49:00,
2013-12-26 12:50:00,28.4,21.2,30.28,North,1,4.0,5.0,74,0.00,,,0.00,Wunderground v.1.12,2013-12-26 17:50:00,
2013-12-26 12:51:00,28.4,21.2,30.28,NW,320,6.0,6.0,74,0.00,,,0.00,Wunderground v.1.12,2013-12-26 17:51:00,
2013-12-26 12:52:00,28.4,21.2,30.28,NE,43,6.0,7.0,74,0.00,,,0.00,Wunderground v.1.12,2013-12-26 17:52:00,
2013-12-26 12:54:00,28.4,21.2,30.28,NW,312,3.0,4.0,74,0.00,,,0.00,Wunderground v.1.12,2013-12-26 17:54:00,
2013-12-26 12:55:00,28.4,21.2,30.28,WNW,295,3.0,5.0,74,0.00,,,0.00,Wunderground v.1.12,2013-12-26 17:55:00,
2013-12-26 12:56:00,28.4,21.2,30.28,West,277,4.0,6.0,74,0.00,,,0.00,Wunderground v.1.12,2013-12-26 17:56:00,
2013-12-26 12:57:00,28.4,21.2,30.28,West,276,4.0,6.0,74,0.00,,,0.00,Wunderground v.1.12,2013-12-26 17:57:00,
2013-12-26 12:59:00,28.4,20.8,30.28,West,277,6.0,10.0,73,0.00,,,0.00,Wunderground v.1.12,2013-12-26 17:59:00,
2013-12-26 13:00:00,28.4,20.5,30.28,West,280,6.0,11.0,72,0.00,,,0.00,Wunderground v.1.12,2013-12-26 18:00:00,
2013-12-26 13:01:00,28.4,20.5,30.28,WNW,285,6.0,11.0,72,0.00,,,0.00,Wunderground v.1.12,2013-12-26 18:01:00,
2013-12-26 13:02:00,28.4,20.5,30.28,NW,318,6.0,12.0,72,0.00,,,0.00,Wunderground v.1.12,2013-12-26 18:02:00,
2013-12-26 13:05:00,28.5,20.6,30.28,NW,309,8.0,11.0,72,0.00,,,0.00,Wunderground v.1.12,2013-12-26 18:05:00,
2013-12-26 13:06:00,28.5,20.6,30.28,NW,312,3.0,11.0,72,0.00,,,0.00,Wunderground v.1.12,2013-12-26 18:06:00,
2013-12-26 13:07:00,28.5,20.9,30.28,WNW,293,2.0,11.0,73,0.00,,,0.00,Wunderground v.1.12,2013-12-26 18:07:00,
2013-12-26 13:08:00,28.6,20.7,30.28,South,176,2.0,11.0,72,0.00,,,0.00,Wunderground v.1.12,2013-12-26 18:08:00,
2013-12-26 13:10:00,28.6,20.7,30.28,WNW,291,6.0,12.0,72,0.00,,,0.00,Wunderground v.1.12,2013-12-26 18:10:00,
2013-12-26 13:11:00,28.6,20.7,30.28,WNW,300,3.0,12.0,72,0.00,,,0.00,Wunderground v.1.12,2013-12-26 18:11:00,
2013-12-26 13:12:00,28.6,20.7,30.28,NW,314,6.0,12.0,72,0.00,,,0.00,Wunderground v.1.12,2013-12-26 18:12:00,
2013-12-26 13:13:00,28.6,20.7,30.28,ENE,72,12.0,16.0,72,0.00,,,0.00,Wunderground v.1.12,2013-12-26 18:13:00,
2013-12-26 13:15:00,28.5,20.6,30.28,NW,312,7.0,16.0,72,0.00,,,0.00,Wunderground v.1.12,2013-12-26 18:15:00,
2013-12-26 13:16:00,28.5,20.9,30.28,WNW,294,3.0,12.0,73,0.00,,,0.00,Wunderground v.1.12,2013-12-26 18:16:00,
2013-12-26 13:17:00,28.5,20.9,30.28,West,277,6.0,12.0,73,0.00,,,0.00,Wunderground v.1.12,2013-12-26 18:17:00,
2013-12-26 13:18:00,28.5,20.9,30.28,WNW,291,3.0,12.0,73,0.00,,,0.00,Wunderground v.1.12,2013-12-26 18:18:00,
2013-12-26 13:20:00,28.6,21.0,30.28,West,277,0.0,5.0,73,0.00,,,0.00,Wunderground v.1.12,2013-12-26 18:20:00,
2013-12-26 13:21:00,28.6,21.0,30.28,WNW,292,12.0,19.0,73,0.00,,,0.00,Wunderground v.1.12,2013-12-26 18:21:00,
2013-12-26 13:22:00,28.6,21.0,30.28,WNW,283,10.0,19.0,73,0.00,,,0.00,Wunderground v.1.12,2013-12-26 18:22:00,
2013-12-26 13:23:00,28.6,20.7,30.29,North,1,3.0,19.0,72,0.00,,,0.00,Wunderground v.1.12,2013-12-26 18:23:00,
2013-12-26 13:25:00,28.8,20.9,30.28,NW,304,3.0,5.0,72,0.00,,,0.00,Wunderground v.1.12,2013-12-26 18:25:00,
2013-12-26 13:26:00,29.0,21.1,30.28,WNW,283,9.0,11.0,72,0.00,,,0.00,Wunderground v.1.12,2013-12-26 18:26:00,
2013-12-26 13:27:00,29.0,21.1,30.28,WNW,300,9.0,11.0,72,0.00,,,0.00,Wunderground v.1.12,2013-12-26 18:27:00,
2013-12-26 13:28:00,29.1,20.9,30.28,WNW,300,8.0,12.0,71,0.00,,,0.00,Wunderground v.1.12,2013-12-26 18:28:00,
2013-12-26 13:30:00,29.2,21.0,30.28,WNW,300,1.0,5.0,71,0.00,,,0.00,Wunderground v.1.12,2013-12-26 18:30:00,
2013-12-26 13:31:00,29.4,21.2,30.28,WNW,300,3.0,5.0,71,0.00,,,0.00,Wunderground v.1.12,2013-12-26 18:31:00,
2013-12-26 13:32:00,29.5,21.3,30.28,WNW,300,3.0,5.0,71,0.00,,,0.00,Wunderground v.1.12,2013-12-26 18:32:00,
2013-12-26 13:33:00,29.6,21.3,30.28,North,1,2.0,5.0,71,0.00,,,0.00,Wunderground v.1.12,2013-12-26 18:33:00,
2013-12-26 13:35:00,29.9,21.0,30.28,NE,34,4.0,6.0,69,0.00,,,0.00,Wunderground v.1.12,2013-12-26 18:35:00,
2013-12-26 13:36:00,29.9,21.0,30.28,NW,304,4.0,6.0,69,0.00,,,0.00,Wunderground v.1.12,2013-12-26 18:36:00,
2013-12-26 13:37:00,29.9,21.0,30.28,WNW,300,3.0,6.0,69,0.00,,,0.00,Wunderground v.1.12,2013-12-26 18:37:00,
2013-12-26 13:38:00,29.9,21.0,30.28,West,280,6.0,13.0,69,0.00,,,0.00,Wunderground v.1.12,2013-12-26 18:38:00,
2013-12-26 13:39:00,29.9,21.0,30.28,NNE,23,7.0,13.0,69,0.00,,,0.00,Wunderground v.1.12,2013-12-26 18:39:00,
2013-12-26 13:41:00,29.7,20.1,30.28,WSW,253,3.0,7.0,67,0.00,,,0.00,Wunderground v.1.12,2013-12-26 18:41:00,
2013-12-26 13:42:00,29.7,20.1,30.28,NE,34,3.0,7.0,67,0.00,,,0.00,Wunderground v.1.12,2013-12-26 18:42:00,
2013-12-26 13:43:00,29.7,20.4,30.28,WNW,294,3.0,9.0,68,0.00,,,0.00,Wunderground v.1.12,2013-12-26 18:43:00,
2013-12-26 13:44:00,29.6,20.0,30.28,WNW,284,2.0,9.0,67,0.00,,,0.00,Wunderground v.1.12,2013-12-26 18:44:00,
2013-12-26 13:46:00,29.6,20.0,30.28,NW,307,9.0,9.0,67,0.00,,,0.00,Wunderground v.1.12,2013-12-26 18:46:00,
2013-12-26 13:47:00,29.5,19.9,30.28,ENE,67,2.0,9.0,67,0.00,,,0.00,Wunderground v.1.12,2013-12-26 18:47:00,
2013-12-26 13:48:00,29.6,20.0,30.28,NW,316,0.0,9.0,67,0.00,,,0.00,Wunderground v.1.12,2013-12-26 18:48:00,
2013-12-26 13:49:00,29.6,20.0,30.28,WSW,248,2.0,9.0,67,0.00,,,0.00,Wunderground v.1.12,2013-12-26 18:49:00,
2013-12-26 13:51:00,29.6,20.0,30.28,North,352,5.0,5.0,67,0.00,,,0.00,Wunderground v.1.12,2013-12-26 18:51:00,
2013-12-26 13:52:00,29.6,20.0,30.28,WNW,302,1.0,7.0,67,0.00,,,0.00,Wunderground v.1.12,2013-12-26 18:52:00,
2013-12-26 13:53:00,29.7,20.1,30.28,WNW,302,4.0,7.0,67,0.00,,,0.00,Wunderground v.1.12,2013-12-26 18:53:00,
2013-12-26 13:54:00,29.7,20.1,30.28,NW,316,1.0,7.0,67,0.00,,,0.00,Wunderground v.1.12,2013-12-26 18:54:00,
2013-12-26 13:56:00,29.8,20.2,30.28,NW,309,6.0,13.0,67,0.00,,,0.00,Wunderground v.1.12,2013-12-26 18:56:00,
2013-12-26 13:57:00,30.0,20.0,30.28,NNW,333,9.0,13.0,66,0.00,,,0.00,Wunderground v.1.12,2013-12-26 18:57:00,
2013-12-26 13:58:00,30.1,20.1,30.28,WNW,300,4.0,15.0,66,0.00,,,0.00,Wunderground v.1.12,2013-12-26 18:58:00,
2013-12-26 14:00:00,30.1,20.1,30.28,West,281,8.0,15.0,66,0.00,,,0.00,Wunderground v.1.12,2013-12-26 19:00:00,
2013-12-26 14:01:00,30.2,20.2,30.28,West,273,1.0,5.0,66,0.00,,,0.00,Wunderground v.1.12,2013-12-26 19:01:00,
2013-12-26 14:02:00,30.4,20.4,30.28,WNW,297,4.0,11.0,66,0.00,,,0.00,Wunderground v.1.12,2013-12-26 19:02:00,
2013-12-26 14:04:00,30.4,20.0,30.28,NNW,346,1.0,11.0,65,0.00,,,0.00,Wunderground v.1.12,2013-12-26 19:04:00,
2013-12-26 14:05:00,30.4,20.0,30.28,NW,325,3.0,11.0,65,0.00,,,0.00,Wunderground v.1.12,2013-12-26 19:05:00,
2013-12-26 14:06:00,30.6,20.2,30.28,WNW,293,3.0,7.0,65,0.00,,,0.00,Wunderground v.1.12,2013-12-26 19:06:00,
2013-12-26 14:07:00,30.7,20.0,30.28,NE,49,8.0,9.0,64,0.00,,,0.00,Wunderground v.1.12,2013-12-26 19:07:00,
2013-12-26 14:08:00,30.7,20.0,30.28,North,358,12.0,12.0,64,0.00,,,0.00,Wunderground v.1.12,2013-12-26 19:08:00,
2013-12-26 14:09:00,30.9,20.5,30.28,WNW,302,3.0,12.0,65,0.00,,,0.00,Wunderground v.1.12,2013-12-26 19:09:00,
2013-12-26 14:10:00,30.9,20.5,30.28,West,278,2.0,12.0,65,0.00,,,0.00,Wunderground v.1.12,2013-12-26 19:10:00,
2013-12-26 14:11:00,31.3,21.3,30.28,North,359,3.0,4.0,66,0.00,,,0.00,Wunderground v.1.12,2013-12-26 19:11:00,
2013-12-26 14:12:00,31.5,21.1,30.28,NE,48,4.0,5.0,65,0.00,,,0.00,Wunderground v.1.12,2013-12-26 19:12:00,
2013-12-26 14:13:00,31.5,21.1,30.28,ENE,63,4.0,5.0,65,0.00,,,0.00,Wunderground v.1.12,2013-12-26 19:13:00,
2013-12-26 14:14:00,31.6,20.8,30.28,NE,40,10.0,15.0,64,0.00,,,0.00,Wunderground v.1.12,2013-12-26 19:14:00,
2013-12-26 14:15:00,31.5,20.7,30.28,North,1,6.0,15.0,64,0.00,,,0.00,Wunderground v.1.12,2013-12-26 19:15:00,
2013-12-26 14:16:00,31.3,20.5,30.28,North,352,4.0,10.0,64,0.00,,,0.00,Wunderground v.1.12,2013-12-26 19:16:00,
2013-12-26 14:18:00,31.2,20.4,30.28,NW,320,0.0,10.0,64,0.00,,,0.00,Wunderground v.1.12,2013-12-26 19:18:00,
2013-12-26 14:19:00,31.0,20.2,30.28,NNE,25,2.0,11.0,64,0.00,,,0.00,Wunderground v.1.12,2013-12-26 19:19:00,
2013-12-26 14:20:00,31.0,20.2,30.28,NNE,21,5.0,11.0,64,0.00,,,0.00,Wunderground v.1.12,2013-12-26 19:20:00,
2013-12-26 14:21:00,30.9,19.8,30.28,WNW,300,2.0,6.0,63,0.00,,,0.00,Wunderground v.1.12,2013-12-26 19:21:00,
2013-12-26 14:23:00,30.8,19.7,30.28,WNW,285,5.0,7.0,63,0.00,,,0.00,Wunderground v.1.12,2013-12-26 19:23:00,
2013-12-26 14:25:00,30.7,20.0,30.28,ENE,65,4.0,10.0,64,0.00,,,0.00,Wunderground v.1.12,2013-12-26 19:25:00,
2013-12-26 14:26:00,30.6,19.9,30.29,North,354,4.0,7.0,64,0.00,,,0.00,Wunderground v.1.12,2013-12-26 19:26:00,
2013-12-26 14:28:00,30.6,19.9,30.28,NE,56,7.0,10.0,64,0.00,,,0.00,Wunderground v.1.12,2013-12-26 19:28:00,
2013-12-26 14:30:00,30.4,19.7,30.29,North,1,6.0,13.0,64,0.00,,,0.00,Wunderground v.1.12,2013-12-26 19:30:00,
2013-12-26 14:32:00,30.3,19.9,30.29,West,270,3.0,4.0,65,0.00,,,0.00,Wunderground v.1.12,2013-12-26 19:32:00,
2013-12-26 14:33:00,30.2,19.8,30.29,NW,309,2.0,6.0,65,0.00,,,0.00,Wunderground v.1.12,2013-12-26 19:33:00,
2013-12-26 14:35:00,30.0,19.7,30.29,WNW,301,5.0,5.0,65,0.00,,,0.00,Wunderground v.1.12,2013-12-26 19:35:00,
2013-12-26 14:37:00,29.9,19.6,30.29,NW,309,3.0,5.0,65,0.00,,,0.00,Wunderground v.1.12,2013-12-26 19:37:00,
2013-12-26 14:38:00,29.8,19.5,30.29,ENE,71,0.0,5.0,65,0.00,,,0.00,Wunderground v.1.12,2013-12-26 19:38:00,
2013-12-26 14:40:00,29.7,19.4,30.29,NE,47,5.0,5.0,65,0.00,,,0.00,Wunderground v.1.12,2013-12-26 19:40:00,
2013-12-26 14:42:00,29.5,19.2,30.29,NW,316,5.0,7.0,65,0.00,,,0.00,Wunderground v.1.12,2013-12-26 19:42:00,
2013-12-26 14:43:00,29.4,19.1,30.29,North,5,4.0,7.0,65,0.00,,,0.00,Wunderground v.1.12,2013-12-26 19:43:00,
2013-12-26 14:45:00,29.2,18.9,30.29,ENE,62,1.0,8.0,65,0.00,,,0.00,Wunderground v.1.12,2013-12-26 19:45:00,
2013-12-26 14:47:00,29.1,18.8,30.30,West,267,1.0,12.0,65,0.00,,,0.00,Wunderground v.1.12,2013-12-26 19:47:00,
2013-12-26 14:48:00,29.1,18.8,30.30,WNW,300,3.0,12.0,65,0.00,,,0.00,Wunderground v.1.12,2013-12-26 19:48:00,
2013-12-26 14:50:00,29.0,19.1,30.30,NNE,12,0.0,4.0,66,0.00,,,0.00,Wunderground v.1.12,2013-12-26 19:50:00,
2013-12-26 14:51:00,29.0,19.1,30.30,NNW,335,2.0,4.0,66,0.00,,,0.00,Wunderground v.1.12,2013-12-26 19:51:00,
2013-12-26 14:53:00,29.0,19.1,30.30,East,93,1.0,11.0,66,0.00,,,0.00,Wunderground v.1.12,2013-12-26 19:53:00,
2013-12-26 14:55:00,29.1,19.5,30.30,NE,46,2.0,4.0,67,0.00,,,0.00,Wunderground v.1.12,2013-12-26 19:55:00,
2013-12-26 14:56:00,29.1,19.5,30.30,WSW,252,1.0,4.0,67,0.00,,,0.00,Wunderground v.1.12,2013-12-26 19:56:00,
2013-12-26 14:58:00,29.3,19.7,30.30,North,6,3.0,7.0,67,0.00,,,0.00,Wunderground v.1.12,2013-12-26 19:58:00,
2013-12-26 15:01:00,29.8,20.2,30.30,North,356,3.0,4.0,67,0.00,,,0.00,Wunderground v.1.12,2013-12-26 20:01:00,
2013-12-26 15:03:00,30.2,20.2,30.30,NE,41,0.0,9.0,66,0.00,,,0.00,Wunderground v.1.12,2013-12-26 20:03:00,
2013-12-26 15:06:00,30.6,20.2,30.30,ENE,59,1.0,8.0,65,0.00,,,0.00,Wunderground v.1.12,2013-12-26 20:06:00,
2013-12-26 15:08:00,30.7,20.3,30.30,WNW,293,6.0,9.0,65,0.00,,,0.00,Wunderground v.1.12,2013-12-26 20:08:00,
2013-12-26 15:11:00,30.7,20.3,30.30,NNE,26,4.0,8.0,65,0.00,,,0.00,Wunderground v.1.12,2013-12-26 20:11:00,
2013-12-26 15:12:00,30.7,20.3,30.30,NW,309,6.0,8.0,65,0.00,,,0.00,Wunderground v.1.12,2013-12-26 20:12:00,
2013-12-26 15:13:00,30.7,20.3,30.30,ENE,59,1.0,8.0,65,0.00,,,0.00,Wunderground v.1.12,2013-12-26 20:13:00,
2013-12-26 15:14:00,30.7,20.3,30.30,WNW,302,2.0,8.0,65,0.00,,,0.00,Wunderground v.1.12,2013-12-26 20:14:00,
2013-12-26 15:16:00,30.9,20.5,30.30,WNW,295,0.0,3.0,65,0.00,,,0.00,Wunderground v.1.12,2013-12-26 20:16:00,
2013-12-26 15:17:00,31.1,21.1,30.30,NNW,342,2.0,5.0,66,0.00,,,0.00,Wunderground v.1.12,2013-12-26 20:17:00,
2013-12-26 15:18:00,31.2,20.8,30.30,NNE,22,1.0,6.0,65,0.00,,,0.00,Wunderground v.1.12,2013-12-26 20:18:00,
2013-12-26 15:19:00,31.3,20.9,30.30,ENE,63,2.0,6.0,65,0.00,,,0.00,Wunderground v.1.12,2013-12-26 20:19:00,
2013-12-26 15:21:00,31.5,21.1,30.31,East,100,1.0,3.0,65,0.00,,,0.00,Wunderground v.1.12,2013-12-26 20:21:00,
2013-12-26 15:22:00,31.5,21.1,30.31,NNW,333,2.0,9.0,65,0.00,,,0.00,Wunderground v.1.12,2013-12-26 20:22:00,
2013-12-26 15:23:00,31.6,21.2,30.31,WNW,284,2.0,9.0,65,0.00,,,0.00,Wunderground v.1.12,2013-12-26 20:23:00,
2013-12-26 15:24:00,31.5,21.1,30.31,WNW,298,1.0,9.0,65,0.00,,,0.00,Wunderground v.1.12,2013-12-26 20:24:00,
2013-12-26 15:26:00,31.6,21.2,30.31,NE,36,2.0,12.0,65,0.00,,,0.00,Wunderground v.1.12,2013-12-26 20:26:00,
2013-12-26 15:27:00,31.5,21.1,30.31,NW,309,6.0,12.0,65,0.00,,,0.00,Wunderground v.1.12,2013-12-26 20:27:00,
2013-12-26 15:29:00,31.5,20.7,30.31,NW,305,3.0,12.0,64,0.00,,,0.00,Wunderground v.1.12,2013-12-26 20:29:00,
2013-12-26 15:31:00,31.6,20.8,30.31,ENE,71,1.0,6.0,64,0.00,,,0.00,Wunderground v.1.12,2013-12-26 20:31:00,
2013-12-26 15:32:00,31.6,20.8,30.31,NE,34,6.0,19.0,64,0.00,,,0.00,Wunderground v.1.12,2013-12-26 20:32:00,
2013-12-26 15:34:00,31.6,20.8,30.31,NE,39,6.0,19.0,64,0.00,,,0.00,Wunderground v.1.12,2013-12-26 20:34:00,
2013-12-26 15:36:00,31.4,20.6,30.32,NNE,27,4.0,10.0,64,0.00,,,0.00,Wunderground v.1.12,2013-12-26 20:36:00,
2013-12-26 15:37:00,31.4,20.6,30.31,West,281,2.0,10.0,64,0.00,,,0.00,Wunderground v.1.12,2013-12-26 20:37:00,
2013-12-26 15:39:00,31.3,20.5,30.31,ESE,122,0.0,10.0,64,0.00,,,0.00,Wunderground v.1.12,2013-12-26 20:39:00,
2013-12-26 15:41:00,31.2,20.8,30.31,NW,312,0.0,6.0,65,0.00,,,0.00,Wunderground v.1.12,2013-12-26 20:41:00,
2013-12-26 15:42:00,31.2,20.8,30.32,NE,49,3.0,7.0,65,0.00,,,0.00,Wunderground v.1.12,2013-12-26 20:42:00,
2013-12-26 15:44:00,31.1,20.3,30.32,ENE,59,1.0,10.0,64,0.00,,,0.00,Wunderground v.1.12,2013-12-26 20:44:00,
2013-12-26 15:45:00,31.1,20.3,30.32,NW,316,2.0,10.0,64,0.00,,,0.00,Wunderground v.1.12,2013-12-26 20:45:00,
2013-12-26 15:46:00,31.2,20.8,30.32,NW,305,2.0,3.0,65,0.00,,,0.00,Wunderground v.1.12,2013-12-26 20:46:00,
2013-12-26 15:48:00,31.3,20.9,30.32,North,8,1.0,4.0,65,0.00,,,0.00,Wunderground v.1.12,2013-12-26 20:48:00,
2013-12-26 15:49:00,31.3,20.9,30.32,NNE,20,4.0,7.0,65,0.00,,,0.00,Wunderground v.1.12,2013-12-26 20:49:00,
2013-12-26 15:50:00,31.3,20.5,30.32,NNE,26,1.0,7.0,64,0.00,,,0.00,Wunderground v.1.12,2013-12-26 20:50:00,
2013-12-26 15:52:00,31.1,20.3,30.32,NW,325,2.0,8.0,64,0.00,,,0.00,Wunderground v.1.12,2013-12-26 20:52:00,
2013-12-26 15:53:00,31.1,20.7,30.32,NNE,21,5.0,8.0,65,0.00,,,0.00,Wunderground v.1.12,2013-12-26 20:53:00,
2013-12-26 15:54:00,31.1,20.7,30.32,WNW,300,3.0,8.0,65,0.00,,,0.00,Wunderground v.1.12,2013-12-26 20:54:00,
2013-12-26 15:55:00,31.1,20.7,30.32,North,10,1.0,8.0,65,0.00,,,0.00,Wunderground v.1.12,2013-12-26 20:55:00,
2013-12-26 15:57:00,31.2,20.8,30.32,ENE,61,0.0,4.0,65,0.00,,,0.00,Wunderground v.1.12,2013-12-26 20:57:00,
2013-12-26 15:59:00,31.2,20.8,30.32,NNE,32,2.0,6.0,65,0.00,,,0.00,Wunderground v.1.12,2013-12-26 20:59:00,
2013-12-26 16:00:00,31.2,20.8,30.32,North,354,5.0,6.0,65,0.00,,,0.00,Wunderground v.1.12,2013-12-26 21:00:00,
2013-12-26 16:02:00,31.1,20.7,30.32,NNE,13,9.0,9.0,65,0.00,,,0.00,Wunderground v.1.12,2013-12-26 21:02:00,
2013-12-26 16:04:00,31.0,20.2,30.32,NNE,19,2.0,9.0,64,0.00,,,0.00,Wunderground v.1.12,2013-12-26 21:04:00,
2013-12-26 16:05:00,30.9,20.1,30.32,WNW,283,3.0,9.0,64,0.00,,,0.00,Wunderground v.1.12,2013-12-26 21:05:00,
2013-12-26 16:06:00,30.8,20.0,30.32,NE,34,1.0,5.0,64,0.00,,,0.00,Wunderground v.1.12,2013-12-26 21:06:00,
2013-12-26 16:07:00,30.7,20.3,30.32,NNE,13,1.0,5.0,65,0.00,,,0.00,Wunderground v.1.12,2013-12-26 21:07:00,
2013-12-26 16:09:00,30.6,20.2,30.32,North,356,4.0,8.0,65,0.00,,,0.00,Wunderground v.1.12,2013-12-26 21:09:00,
2013-12-26 16:10:00,30.5,20.1,30.32,SW,225,0.0,8.0,65,0.00,,,0.00,Wunderground v.1.12,2013-12-26 21:10:00,
2013-12-26 16:11:00,30.4,20.0,30.32,NE,39,4.0,5.0,65,0.00,,,0.00,Wunderground v.1.12,2013-12-26 21:11:00,
2013-12-26 16:13:00,30.3,19.9,30.32,NNE,23,2.0,10.0,65,0.00,,,0.00,Wunderground v.1.12,2013-12-26 21:13:00,
2013-12-26 16:14:00,30.1,19.7,30.32,NW,322,1.0,10.0,65,0.00,,,0.00,Wunderground v.1.12,2013-12-26 21:14:00,
2013-12-26 16:15:00,30.1,19.7,30.32,NW,319,1.0,10.0,65,0.00,,,0.00,Wunderground v.1.12,2013-12-26 21:15:00,
2013-12-26 16:16:00,30.0,20.0,30.33,NNW,338,2.0,4.0,66,0.00,,,0.00,Wunderground v.1.12,2013-12-26 21:16:00,
2013-12-26 16:18:00,29.8,19.8,30.33,WNW,298,0.0,4.0,66,0.00,,,0.00,Wunderground v.1.12,2013-12-26 21:18:00,
2013-12-26 16:20:00,29.8,19.8,30.33,NW,324,3.0,10.0,66,0.00,,,0.00,Wunderground v.1.12,2013-12-26 21:20:00,
2013-12-26 16:21:00,29.7,19.7,30.33,NW,324,1.0,3.0,66,0.00,,,0.00,Wunderground v.1.12,2013-12-26 21:21:00,
2013-12-26 16:23:00,29.7,19.7,30.33,WNW,292,3.0,6.0,66,0.00,,,0.00,Wunderground v.1.12,2013-12-26 21:23:00,
2013-12-26 16:25:00,29.7,19.7,30.33,NW,316,6.0,7.0,66,0.00,,,0.00,Wunderground v.1.12,2013-12-26 21:25:00,
2013-12-26 16:26:00,29.7,19.4,30.33,North,360,5.0,6.0,65,0.00,,,0.00,Wunderground v.1.12,2013-12-26 21:26:00,
2013-12-26 16:27:00,29.6,19.6,30.33,West,267,3.0,7.0,66,0.00,,,0.00,Wunderground v.1.12,2013-12-26 21:27:00,
2013-12-26 16:28:00,29.5,19.5,30.33,WNW,300,3.0,7.0,66,0.00,,,0.00,Wunderground v.1.12,2013-12-26 21:28:00,
2013-12-26 16:30:00,29.4,19.4,30.33,NNW,331,1.0,7.0,66,0.00,,,0.00,Wunderground v.1.12,2013-12-26 21:30:00,
2013-12-26 16:31:00,29.4,19.4,30.33,West,278,1.0,4.0,66,0.00,,,0.00,Wunderground v.1.12,2013-12-26 21:31:00,
2013-12-26 16:32:00,29.3,19.7,30.33,NNE,20,0.0,4.0,67,0.00,,,0.00,Wunderground v.1.12,2013-12-26 21:32:00,
2013-12-26 16:33:00,29.2,19.6,30.33,NW,326,2.0,5.0,67,0.00,,,0.00,Wunderground v.1.12,2013-12-26 21:33:00,
2013-12-26 16:35:00,29.1,19.5,30.33,SW,233,0.0,2.0,67,0.00,,,0.00,Wunderground v.1.12,2013-12-26 21:35:00,
2013-12-26 16:36:00,29.1,19.5,30.33,West,281,1.0,2.0,67,0.00,,,0.00,Wunderground v.1.12,2013-12-26 21:36:00,
2013-12-26 16:37:00,29.0,19.4,30.33,WNW,284,6.0,9.0,67,0.00,,,0.00,Wunderground v.1.12,2013-12-26 21:37:00,
2013-12-26 16:38:00,28.9,19.3,30.33,ENE,57,2.0,9.0,67,0.00,,,0.00,Wunderground v.1.12,2013-12-26 21:38:00,
2013-12-26 16:40:00,28.8,19.2,30.33,ENE,59,4.0,7.0,67,0.00,,,0.00,Wunderground v.1.12,2013-12-26 21:40:00,
2013-12-26 16:41:00,28.8,19.6,30.33,NW,318,1.0,7.0,68,0.00,,,0.00,Wunderground v.1.12,2013-12-26 21:41:00,
2013-12-26 16:42:00,28.7,19.1,30.33,WNW,301,3.0,7.0,67,0.00,,,0.00,Wunderground v.1.12,2013-12-26 21:42:00,
2013-12-26 16:43:00,28.7,19.5,30.33,NNW,332,5.0,7.0,68,0.00,,,0.00,Wunderground v.1.12,2013-12-26 21:43:00,
2013-12-26 16:45:00,28.7,19.5,30.33,North,6,4.0,6.0,68,0.00,,,0.00,Wunderground v.1.12,2013-12-26 21:45:00,
2013-12-26 16:46:00,28.7,19.1,30.33,WNW,300,2.0,6.0,67,0.00,,,0.00,Wunderground v.1.12,2013-12-26 21:46:00,
2013-12-26 16:47:00,28.6,19.4,30.33,WSW,245,1.0,6.0,68,0.00,,,0.00,Wunderground v.1.12,2013-12-26 21:47:00,
2013-12-26 16:48:00,28.6,19.0,30.33,East,90,0.0,6.0,67,0.00,,,0.00,Wunderground v.1.12,2013-12-26 21:48:00,
2013-12-26 16:50:00,28.5,19.3,30.33,NNE,15,0.0,2.0,68,0.00,,,0.00,Wunderground v.1.12,2013-12-26 21:50:00,
2013-12-26 16:51:00,28.5,19.3,30.33,WNW,300,2.0,3.0,68,0.00,,,0.00,Wunderground v.1.12,2013-12-26 21:51:00,
2013-12-26 16:52:00,28.4,19.2,30.33,NNW,336,0.0,4.0,68,0.00,,,0.00,Wunderground v.1.12,2013-12-26 21:52:00,
2013-12-26 16:53:00,28.4,19.2,30.33,NW,309,2.0,4.0,68,0.00,,,0.00,Wunderground v.1.12,2013-12-26 21:53:00,
2013-12-26 16:55:00,28.4,19.2,30.33,North,352,5.0,5.0,68,0.00,,,0.00,Wunderground v.1.12,2013-12-26 21:55:00,
2013-12-26 16:56:00,28.4,19.2,30.33,NNE,20,1.0,6.0,68,0.00,,,0.00,Wunderground v.1.12,2013-12-26 21:56:00,
2013-12-26 16:57:00,28.4,19.2,30.33,North,7,0.0,6.0,68,0.00,,,0.00,Wunderground v.1.12,2013-12-26 21:57:00,
2013-12-26 16:58:00,28.4,19.2,30.33,North,356,2.0,6.0,68,0.00,,,0.00,Wunderground v.1.12,2013-12-26 21:58:00,
2013-12-26 16:59:00,28.3,19.1,30.34,West,268,1.0,6.0,68,0.00,,,0.00,Wunderground v.1.12,2013-12-26 21:59:00,
2013-12-26 17:00:00,28.3,19.1,30.34,WSW,242,0.0,1.0,68,0.00,,,0.00,Wunderground v.1.12,2013-12-26 22:00:00,
2013-12-26 17:01:00,28.3,19.1,30.34,NNE,32,1.0,2.0,68,0.00,,,0.00,Wunderground v.1.12,2013-12-26 22:01:00,
2013-12-26 17:02:00,28.3,19.1,30.34,WNW,285,1.0,4.0,68,0.00,,,0.00,Wunderground v.1.12,2013-12-26 22:02:00,
2013-12-26 17:03:00,28.3,19.1,30.33,NW,312,0.0,4.0,68,0.00,,,0.00,Wunderground v.1.12,2013-12-26 22:03:00,
2013-12-26 17:04:00,28.2,19.0,30.33,WNW,297,3.0,6.0,68,0.00,,,0.00,Wunderground v.1.12,2013-12-26 22:04:00,
2013-12-26 17:05:00,28.3,19.1,30.33,NE,51,2.0,6.0,68,0.00,,,0.00,Wunderground v.1.12,2013-12-26 22:05:00,
2013-12-26 17:06:00,28.3,19.1,30.34,NE,40,0.0,6.0,68,0.00,,,0.00,Wunderground v.1.12,2013-12-26 22:06:00,
2013-12-26 17:07:00,28.3,19.1,30.34,NW,305,1.0,6.0,68,0.00,,,0.00,Wunderground v.1.12,2013-12-26 22:07:00,
2013-12-26 17:08:00,28.3,19.1,30.34,ENE,64,1.0,7.0,68,0.00,,,0.00,Wunderground v.1.12,2013-12-26 22:08:00,
2013-12-26 17:09:00,28.4,19.2,30.34,NNW,342,0.0,7.0,68,0.00,,,0.00,Wunderground v.1.12,2013-12-26 22:09:00,
2013-12-26 17:10:00,28.4,19.2,30.34,WNW,300,0.0,2.0,68,0.00,,,0.00,Wunderground v.1.12,2013-12-26 22:10:00,
2013-12-26 17:11:00,28.4,19.2,30.34,NNW,336,1.0,2.0,68,0.00,,,0.00,Wunderground v.1.12,2013-12-26 22:11:00,
2013-12-26 17:12:00,28.4,18.8,30.34,NNE,22,2.0,2.0,67,0.00,,,0.00,Wunderground v.1.12,2013-12-26 22:12:00,
2013-12-26 17:13:00,28.3,19.1,30.34,NE,41,0.0,4.0,68,0.00,,,0.00,Wunderground v.1.12,2013-12-26 22:13:00,
2013-12-26 17:15:00,28.3,19.1,30.34,NNW,338,0.0,1.0,68,0.00,,,0.00,Wunderground v.1.12,2013-12-26 22:15:00,
2013-12-26 17:16:00,28.3,19.1,30.34,NNW,338,0.0,1.0,68,0.00,,,0.00,Wunderground v.1.12,2013-12-26 22:16:00,
2013-12-26 17:17:00,28.2,19.0,30.34,NNW,342,1.0,1.0,68,0.00,,,0.00,Wunderground v.1.12,2013-12-26 22:17:00,
2013-12-26 17:18:00,28.2,19.0,30.34,ENE,74,1.0,5.0,68,0.00,,,0.00,Wunderground v.1.12,2013-12-26 22:18:00,
2013-12-26 17:20:00,28.2,19.0,30.34,North,352,1.0,1.0,68,0.00,,,0.00,Wunderground v.1.12,2013-12-26 22:20:00,
2013-12-26 17:21:00,28.1,18.9,30.34,NNE,15,3.0,4.0,68,0.00,,,0.00,Wunderground v.1.12,2013-12-26 22:21:00,
2013-12-26 17:22:00,28.1,18.9,30.34,NNW,328,0.0,4.0,68,0.00,,,0.00,Wunderground v.1.12,2013-12-26 22:22:00,
2013-12-26 17:23:00,28.0,18.8,30.34,NNW,330,0.0,4.0,68,0.00,,,0.00,Wunderground v.1.12,2013-12-26 22:23:00,
2013-12-26 17:25:00,27.8,18.6,30.34,NNW,335,0.0,2.0,68,0.00,,,0.00,Wunderground v.1.12,2013-12-26 22:25:00,
2013-12-26 17:26:00,27.9,18.7,30.34,NE,44,1.0,2.0,68,0.00,,,0.00,Wunderground v.1.12,2013-12-26 22:26:00,
2013-12-26 17:27:00,27.8,18.6,30.34,NNE,21,0.0,2.0,68,0.00,,,0.00,Wunderground v.1.12,2013-12-26 22:27:00,
2013-12-26 17:28:00,27.7,18.8,30.34,West,276,0.0,2.0,69,0.00,,,0.00,Wunderground v.1.12,2013-12-26 22:28:00,
2013-12-26 17:31:00,27.6,18.8,30.34,NW,309,0.0,2.0,69,0.00,,,0.00,Wunderground v.1.12,2013-12-26 22:31:00,
2013-12-26 17:32:00,27.6,18.8,30.34,NW,310,0.0,2.0,69,0.00,,,0.00,Wunderground v.1.12,2013-12-26 22:32:00,
2013-12-26 17:34:00,27.5,18.7,30.34,NW,321,0.0,2.0,69,0.00,,,0.00,Wunderground v.1.12,2013-12-26 22:34:00,
2013-12-26 17:35:00,27.5,18.7,30.34,North,360,2.0,4.0,69,0.00,,,0.00,Wunderground v.1.12,2013-12-26 22:35:00,
2013-12-26 17:36:00,27.5,18.7,30.34,North,356,1.0,4.0,69,0.00,,,0.00,Wunderground v.1.12,2013-12-26 22:36:00,
2013-12-26 17:37:00,27.5,18.7,30.34,NNW,328,5.0,6.0,69,0.00,,,0.00,Wunderground v.1.12,2013-12-26 22:37:00,
2013-12-26 17:39:00,27.5,18.7,30.34,NE,56,0.0,6.0,69,0.00,,,0.00,Wunderground v.1.12,2013-12-26 22:39:00,
2013-12-26 17:40:00,27.5,18.7,30.34,NW,316,0.0,1.0,69,0.00,,,0.00,Wunderground v.1.12,2013-12-26 22:40:00,
2013-12-26 17:41:00,27.5,18.7,30.34,NE,46,1.0,1.0,69,0.00,,,0.00,Wunderground v.1.12,2013-12-26 22:41:00,
2013-12-26 17:42:00,27.5,18.7,30.34,WNW,300,0.0,4.0,69,0.00,,,0.00,Wunderground v.1.12,2013-12-26 22:42:00,
2013-12-26 17:44:00,27.4,18.6,30.34,WNW,298,0.0,4.0,69,0.00,,,0.00,Wunderground v.1.12,2013-12-26 22:44:00,
2013-12-26 17:46:00,27.4,18.6,30.34,WNW,302,1.0,1.0,69,0.00,,,0.00,Wunderground v.1.12,2013-12-26 22:46:00,
2013-12-26 17:47:00,27.5,18.7,30.34,NNW,333,2.0,3.0,69,0.00,,,0.00,Wunderground v.1.12,2013-12-26 22:47:00,
2013-12-26 17:49:00,27.5,18.7,30.34,NE,39,5.0,5.0,69,0.00,,,0.00,Wunderground v.1.12,2013-12-26 22:49:00,
2013-12-26 17:51:00,27.5,18.7,30.34,NNW,342,0.0,1.0,69,0.00,,,0.00,Wunderground v.1.12,2013-12-26 22:51:00,
2013-12-26 17:52:00,27.5,18.7,30.34,NNW,340,1.0,2.0,69,0.00,,,0.00,Wunderground v.1.12,2013-12-26 22:52:00,
2013-12-26 17:54:00,27.4,18.6,30.34,North,354,0.0,2.0,69,0.00,,,0.00,Wunderground v.1.12,2013-12-26 22:54:00,
2013-12-26 17:56:00,27.3,18.5,30.34,NE,44,0.0,1.0,69,0.00,,,0.00,Wunderground v.1.12,2013-12-26 22:56:00,
2013-12-26 17:57:00,27.3,18.5,30.34,NE,44,0.0,1.0,69,0.00,,,0.00,Wunderground v.1.12,2013-12-26 22:57:00,
2013-12-26 17:59:00,27.2,18.4,30.34,NNE,20,0.0,3.0,69,0.00,,,0.00,Wunderground v.1.12,2013-12-26 22:59:00,
2013-12-26 18:01:00,27.2,18.4,30.34,North,354,0.0,1.0,69,0.00,,,0.00,Wunderground v.1.12,2013-12-26 23:01:00,
2013-12-26 18:02:00,27.2,18.4,30.34,WNW,300,1.0,1.0,69,0.00,,,0.00,Wunderground v.1.12,2013-12-26 23:02:00,
2013-12-26 18:04:00,27.1,18.3,30.34,NE,39,1.0,3.0,69,0.00,,,0.00,Wunderground v.1.12,2013-12-26 23:04:00,
2013-12-26 18:06:00,27.1,18.3,30.34,NNE,19,2.0,4.0,69,0.00,,,0.00,Wunderground v.1.12,2013-12-26 23:06:00,
2013-12-26 18:07:00,27.2,18.4,30.34,NNE,25,0.0,4.0,69,0.00,,,0.00,Wunderground v.1.12,2013-12-26 23:07:00,
2013-12-26 18:08:00,27.1,18.3,30.34,NE,51,1.0,4.0,69,0.00,,,0.00,Wunderground v.1.12,2013-12-26 23:08:00,
2013-12-26 18:09:00,27.2,18.4,30.34,NNE,26,0.0,4.0,69,0.00,,,0.00,Wunderground v.1.12,2013-12-26 23:09:00,
2013-12-26 18:11:00,27.1,18.3,30.34,NE,37,0.0,2.0,69,0.00,,,0.00,Wunderground v.1.12,2013-12-26 23:11:00,
2013-12-26 18:12:00,27.1,18.3,30.34,West,280,0.0,2.0,69,0.00,,,0.00,Wunderground v.1.12,2013-12-26 23:12:00,
2013-12-26 18:13:00,27.1,18.3,30.34,WNW,283,1.0,2.0,69,0.00,,,0.00,Wunderground v.1.12,2013-12-26 23:13:00,
2013-12-26 18:14:00,27.0,18.2,30.34,NE,41,2.0,3.0,69,0.00,,,0.00,Wunderground v.1.12,2013-12-26 23:14:00,
2013-12-26 18:16:00,26.9,18.1,30.34,ENE,70,1.0,1.0,69,0.00,,,0.00,Wunderground v.1.12,2013-12-26 23:16:00,
2013-12-26 18:17:00,26.9,18.1,30.34,NNE,22,1.0,2.0,69,0.00,,,0.00,Wunderground v.1.12,2013-12-26 23:17:00,
2013-12-26 18:18:00,26.9,18.1,30.34,WNW,298,2.0,2.0,69,0.00,,,0.00,Wunderground v.1.12,2013-12-26 23:18:00,
2013-12-26 18:19:00,27.0,18.2,30.34,NE,44,0.0,2.0,69,0.00,,,0.00,Wunderground v.1.12,2013-12-26 23:19:00,
2013-12-26 18:21:00,27.0,18.2,30.34,NW,324,1.0,2.0,69,0.00,,,0.00,Wunderground v.1.12,2013-12-26 23:21:00,
2013-12-26 18:22:00,27.0,18.2,30.34,North,11,0.0,3.0,69,0.00,,,0.00,Wunderground v.1.12,2013-12-26 23:22:00,
2013-12-26 18:23:00,27.0,18.2,30.34,North,11,0.0,3.0,69,0.00,,,0.00,Wunderground v.1.12,2013-12-26 23:23:00,
2013-12-26 18:24:00,27.1,18.3,30.34,NNE,15,0.0,3.0,69,0.00,,,0.00,Wunderground v.1.12,2013-12-26 23:24:00,
2013-12-26 18:26:00,27.1,18.3,30.34,North,354,0.0,3.0,69,0.00,,,0.00,Wunderground v.1.12,2013-12-26 23:26:00,
2013-12-26 18:27:00,27.0,18.2,30.34,NE,35,0.0,3.0,69,0.00,,,0.00,Wunderground v.1.12,2013-12-26 23:27:00,
2013-12-26 18:28:00,27.0,18.2,30.34,NE,35,0.0,3.0,69,0.00,,,0.00,Wunderground v.1.12,2013-12-26 23:28:00,
2013-12-26 18:30:00,27.0,18.2,30.34,West,277,0.0,5.0,69,0.00,,,0.00,Wunderground v.1.12,2013-12-26 23:30:00,
2013-12-26 18:31:00,27.0,18.2,30.34,NW,306,1.0,3.0,69,0.00,,,0.00,Wunderground v.1.12,2013-12-26 23:31:00,
2013-12-26 18:32:00,27.0,18.2,30.34,NW,312,0.0,3.0,69,0.00,,,0.00,Wunderground v.1.12,2013-12-26 23:32:00,
2013-12-26 18:33:00,27.0,18.2,30.34,NW,312,0.0,3.0,69,0.00,,,0.00,Wunderground v.1.12,2013-12-26 23:33:00,
2013-12-26 18:35:00,27.0,18.2,30.34,WNW,295,0.0,3.0,69,0.00,,,0.00,Wunderground v.1.12,2013-12-26 23:35:00,
2013-12-26 18:36:00,27.0,18.2,30.34,ESE,111,0.0,2.0,69,0.00,,,0.00,Wunderground v.1.12,2013-12-26 23:36:00,
2013-12-26 18:38:00,27.0,18.2,30.34,NNW,342,1.0,2.0,69,0.00,,,0.00,Wunderground v.1.12,2013-12-26 23:38:00,
2013-12-26 18:39:00,27.0,18.2,30.34,WSW,256,0.0,2.0,69,0.00,,,0.00,Wunderground v.1.12,2013-12-26 23:39:00,
2013-12-26 18:40:00,26.9,18.1,30.34,West,259,0.0,1.0,69,0.00,,,0.00,Wunderground v.1.12,2013-12-26 23:40:00,
2013-12-26 18:41:00,26.8,18.0,30.34,North,11,2.0,2.0,69,0.00,,,0.00,Wunderground v.1.12,2013-12-26 23:41:00,
2013-12-26 18:42:00,26.8,18.0,30.34,NW,312,0.0,2.0,69,0.00,,,0.00,Wunderground v.1.12,2013-12-26 23:42:00,
2013-12-26 18:43:00,26.8,18.0,30.34,NNW,342,0.0,2.0,69,0.00,,,0.00,Wunderground v.1.12,2013-12-26 23:43:00,
2013-12-26 18:44:00,26.8,18.0,30.34,North,358,2.0,3.0,69,0.00,,,0.00,Wunderground v.1.12,2013-12-26 23:44:00,
2013-12-26 18:45:00,26.8,18.0,30.34,NW,309,2.0,2.0,69,0.00,,,0.00,Wunderground v.1.12,2013-12-26 23:45:00,
2013-12-26 18:46:00,26.9,18.1,30.34,ENE,78,0.0,2.0,69,0.00,,,0.00,Wunderground v.1.12,2013-12-26 23:46:00,
2013-12-26 18:47:00,26.9,18.1,30.34,NNW,332,1.0,2.0,69,0.00,,,0.00,Wunderground v.1.12,2013-12-26 23:47:00,
2013-12-26 18:48:00,26.9,18.1,30.34,NNE,26,1.0,2.0,69,0.00,,,0.00,Wunderground v.1.12,2013-12-26 23:48:00,
2013-12-26 18:49:00,26.9,18.1,30.34,North,360,1.0,2.0,69,0.00,,,0.00,Wunderground v.1.12,2013-12-26 23:49:00,
2013-12-26 18:50:00,26.8,18.0,30.34,WSW,253,0.0,1.0,69,0.00,,,0.00,Wunderground v.1.12,2013-12-26 23:50:00,
2013-12-26 18:51:00,26.8,18.0,30.34,NW,304,0.0,1.0,69,0.00,,,0.00,Wunderground v.1.12,2013-12-26 23:51:00,
2013-12-26 18:53:00,26.8,18.0,30.34,NNW,338,1.0,3.0,69,0.00,,,0.00,Wunderground v.1.12,2013-12-26 23:53:00,
2013-12-26 18:54:00,26.8,18.0,30.34,NNE,16,0.0,3.0,69,0.00,,,0.00,Wunderground v.1.12,2013-12-26 23:54:00,
2013-12-26 18:55:00,26.8,18.0,30.35,NNE,16,0.0,1.0,69,0.00,,,0.00,Wunderground v.1.12,2013-12-26 23:55:00,
2013-12-26 18:56:00,26.8,18.0,30.34,NNE,15,0.0,1.0,69,0.00,,,0.00,Wunderground v.1.12,2013-12-26 23:56:00,
2013-12-26 18:58:00,26.8,18.0,30.35,West,281,0.0,2.0,69,0.00,,,0.00,Wunderground v.1.12,2013-12-26 23:58:00,
2013-12-26 18:59:00,26.8,18.0,30.35,West,281,0.0,2.0,69,0.00,,,0.00,Wunderground v.1.12,2013-12-26 23:59:00,
2013-12-26 19:00:00,26.7,17.9,30.35,SSW,202,0.0,1.0,69,0.00,,,0.00,Wunderground v.1.12,2013-12-27 00:00:00,
2013-12-26 19:01:00,26.7,17.9,30.35,NNW,347,1.0,2.0,69,0.00,,,0.00,Wunderground v.1.12,2013-12-27 00:01:00,
2013-12-26 19:03:00,26.6,17.8,30.35,West,281,1.0,3.0,69,0.00,,,0.00,Wunderground v.1.12,2013-12-27 00:03:00,
2013-12-26 19:04:00,26.6,17.8,30.35,NNE,29,4.0,5.0,69,0.00,,,0.00,Wunderground v.1.12,2013-12-27 00:04:00,
2013-12-26 19:05:00,26.6,17.8,30.35,NNW,347,0.0,5.0,69,0.00,,,0.00,Wunderground v.1.12,2013-12-27 00:05:00,
2013-12-26 19:06:00,26.7,17.9,30.35,NW,314,2.0,4.0,69,0.00,,,0.00,Wunderground v.1.12,2013-12-27 00:06:00,
2013-12-26 19:08:00,26.7,17.9,30.35,NE,48,0.0,4.0,69,0.00,,,0.00,Wunderground v.1.12,2013-12-27 00:08:00,
2013-12-26 19:09:00,26.7,17.9,30.35,NE,43,0.0,4.0,69,0.00,,,0.00,Wunderground v.1.12,2013-12-27 00:09:00,
2013-12-26 19:10:00,26.6,17.8,30.35,ENE,75,1.0,1.0,69,0.00,,,0.00,Wunderground v.1.12,2013-12-27 00:10:00,
2013-12-26 19:11:00,26.6,17.8,30.35,NNW,336,2.0,4.0,69,0.00,,,0.00,Wunderground v.1.12,2013-12-27 00:11:00,
2013-12-26 19:12:00,26.6,17.8,30.35,NNW,338,3.0,4.0,69,0.00,,,0.00,Wunderground v.1.12,2013-12-27 00:12:00,
2013-12-26 19:13:00,26.7,17.9,30.35,NW,319,1.0,5.0,69,0.00,,,0.00,Wunderground v.1.12,2013-12-27 00:13:00,
2013-12-26 19:14:00,26.7,17.9,30.35,NNW,330,0.0,5.0,69,0.00,,,0.00,Wunderground v.1.12,2013-12-27 00:14:00,
2013-12-26 19:15:00,26.7,17.9,30.35,NW,311,2.0,2.0,69,0.00,,,0.00,Wunderground v.1.12,2013-12-27 00:15:00,
2013-12-26 19:17:00,26.7,17.9,30.35,WNW,300,1.0,3.0,69,0.00,,,0.00,Wunderground v.1.12,2013-12-27 00:17:00,
2013-12-26 19:18:00,26.7,17.9,30.35,North,352,3.0,3.0,69,0.00,,,0.00,Wunderground v.1.12,2013-12-27 00:18:00,
2013-12-26 19:19:00,26.6,17.8,30.35,NW,308,2.0,4.0,69,0.00,,,0.00,Wunderground v.1.12,2013-12-27 00:19:00,
2013-12-26 19:20:00,26.7,17.6,30.35,NNE,12,1.0,1.0,68,0.00,,,0.00,Wunderground v.1.12,2013-12-27 00:20:00,
2013-12-26 19:22:00,26.7,17.9,30.35,WNW,284,1.0,4.0,69,0.00,,,0.00,Wunderground v.1.12,2013-12-27 00:22:00,
2013-12-26 19:23:00,26.7,17.9,30.35,North,4,0.0,5.0,69,0.00,,,0.00,Wunderground v.1.12,2013-12-27 00:23:00,
2013-12-26 19:25:00,26.7,17.6,30.35,West,267,0.0,7.0,68,0.00,,,0.00,Wunderground v.1.12,2013-12-27 00:25:00,
2013-12-26 19:27:00,26.7,17.6,30.35,NNE,33,3.0,3.0,68,0.00,,,0.00,Wunderground v.1.12,2013-12-27 00:27:00,
2013-12-26 19:28:00,26.7,17.6,30.35,NNW,332,6.0,7.0,68,0.00,,,0.00,Wunderground v.1.12,2013-12-27 00:28:00,
2013-12-26 19:30:00,26.9,17.7,30.35,NE,49,2.0,3.0,68,0.00,,,0.00,Wunderground v.1.12,2013-12-27 00:30:00,
2013-12-26 19:31:00,26.9,17.7,30.35,NE,56,2.0,3.0,68,0.00,,,0.00,Wunderground v.1.12,2013-12-27 00:31:00,
2013-12-26 19:32:00,26.9,17.7,30.36,WNW,283,0.0,3.0,68,0.00,,,0.00,Wunderground v.1.12,2013-12-27 00:32:00,
2013-12-26 19:34:00,26.9,17.4,30.36,ENE,75,0.0,3.0,67,0.00,,,0.00,Wunderground v.1.12,2013-12-27 00:34:00,
2013-12-26 19:36:00,26.8,17.6,30.36,East,88,0.0,2.0,68,0.00,,,0.00,Wunderground v.1.12,2013-12-27 00:36:00,
2013-12-26 19:37:00,26.8,17.6,30.35,NW,309,2.0,2.0,68,0.00,,,0.00,Wunderground v.1.12,2013-12-27 00:37:00,
2013-12-26 19:39:00,26.7,17.6,30.35,NW,314,0.0,4.0,68,0.00,,,0.00,Wunderground v.1.12,2013-12-27 00:39:00,
2013-12-26 19:41:00,26.7,17.6,30.36,NE,54,1.0,3.0,68,0.00,,,0.00,Wunderground v.1.12,2013-12-27 00:41:00,
2013-12-26 19:42:00,26.7,17.2,30.35,North,357,2.0,6.0,67,0.00,,,0.00,Wunderground v.1.12,2013-12-27 00:42:00,
2013-12-26 19:44:00,26.7,17.2,30.35,WNW,296,2.0,6.0,67,0.00,,,0.00,Wunderground v.1.12,2013-12-27 00:44:00,
2013-12-26 19:46:00,26.8,17.3,30.35,WNW,298,2.0,9.0,67,0.00,,,0.00,Wunderground v.1.12,2013-12-27 00:46:00,
2013-12-26 19:47:00,26.8,17.3,30.36,WNW,297,2.0,10.0,67,0.00,,,0.00,Wunderground v.1.12,2013-12-27 00:47:00,
2013-12-26 19:49:00,26.9,17.4,30.36,NNE,25,0.0,10.0,67,0.00,,,0.00,Wunderground v.1.12,2013-12-27 00:49:00,
2013-12-26 19:51:00,26.9,17.4,30.36,WNW,293,2.0,5.0,67,0.00,,,0.00,Wunderground v.1.12,2013-12-27 00:51:00,
2013-12-26 19:52:00,26.9,17.4,30.36,NW,309,5.0,6.0,67,0.00,,,0.00,Wunderground v.1.12,2013-12-27 00:52:00,
2013-12-26 19:53:00,27.0,17.1,30.36,NNE,30,3.0,6.0,66,0.00,,,0.00,Wunderground v.1.12,2013-12-27 00:53:00,
2013-12-26 19:54:00,27.0,17.1,30.36,ENE,71,1.0,6.0,66,0.00,,,0.00,Wunderground v.1.12,2013-12-27 00:54:00,
2013-12-26 19:56:00,26.9,17.0,30.36,NW,314,1.0,8.0,66,0.00,,,0.00,Wunderground v.1.12,2013-12-27 00:56:00,
2013-12-26 19:57:00,27.0,17.1,30.36,NE,39,7.0,15.0,66,0.00,,,0.00,Wunderground v.1.12,2013-12-27 00:57:00,
2013-12-26 19:58:00,27.0,17.1,30.36,NNW,342,5.0,15.0,66,0.00,,,0.00,Wunderground v.1.12,2013-12-27 00:58:00,
2013-12-26 19:59:00,27.0,17.1,30.36,NNW,336,3.0,15.0,66,0.00,,,0.00,Wunderground v.1.12,2013-12-27 00:59:00,
2013-12-26 20:01:00,27.0,17.1,30.36,North,4,5.0,9.0,66,0.00,,,0.00,Wunderground v.1.12,2013-12-27 01:01:00,
2013-12-26 20:02:00,27.0,17.1,30.36,NW,318,4.0,9.0,66,0.00,,,0.00,Wunderground v.1.12,2013-12-27 01:02:00,
2013-12-26 20:03:00,27.1,17.2,30.36,ENE,57,3.0,9.0,66,0.00,,,0.00,Wunderground v.1.12,2013-12-27 01:03:00,
2013-12-26 20:05:00,27.0,17.1,30.36,North,350,3.0,10.0,66,0.00,,,0.00,Wunderground v.1.12,2013-12-27 01:05:00,
2013-12-26 20:06:00,27.0,17.1,30.36,WNW,298,4.0,12.0,66,0.00,,,0.00,Wunderground v.1.12,2013-12-27 01:06:00,
2013-12-26 20:07:00,27.0,17.1,30.36,NNE,29,6.0,12.0,66,0.00,,,0.00,Wunderground v.1.12,2013-12-27 01:07:00,
2013-12-26 20:08:00,27.0,17.1,30.36,NNE,29,12.0,12.0,66,0.00,,,0.00,Wunderground v.1.12,2013-12-27 01:08:00,
2013-12-26 20:10:00,27.1,17.2,30.36,NE,49,1.0,16.0,66,0.00,,,0.00,Wunderground v.1.12,2013-12-27 01:10:00,
2013-12-26 20:11:00,27.0,17.1,30.36,West,263,1.0,5.0,66,0.00,,,0.00,Wunderground v.1.12,2013-12-27 01:11:00,
2013-12-26 20:12:00,27.0,17.1,30.36,WSW,246,2.0,5.0,66,0.00,,,0.00,Wunderground v.1.12,2013-12-27 01:12:00,
2013-12-26 20:13:00,27.0,17.1,30.36,North,359,2.0,9.0,66,0.00,,,0.00,Wunderground v.1.12,2013-12-27 01:13:00,
2013-12-26 20:15:00,27.0,17.1,30.36,North,11,3.0,12.0,66,0.00,,,0.00,Wunderground v.1.12,2013-12-27 01:15:00,
2013-12-26 20:17:00,26.9,17.0,30.36,East,87,3.0,5.0,66,0.00,,,0.00,Wunderground v.1.12,2013-12-27 01:17:00,
2013-12-26 20:18:00,26.8,17.0,30.36,NW,326,6.0,15.0,66,0.00,,,0.00,Wunderground v.1.12,2013-12-27 01:18:00,
2013-12-26 20:20:00,26.8,17.0,30.36,NNE,32,9.0,15.0,66,0.00,,,0.00,Wunderground v.1.12,2013-12-27 01:20:00,
2013-12-26 20:22:00,26.9,17.0,30.36,ENE,57,1.0,10.0,66,0.00,,,0.00,Wunderground v.1.12,2013-12-27 01:22:00,
2013-12-26 20:23:00,26.8,17.0,30.36,WSW,256,2.0,10.0,66,0.00,,,0.00,Wunderground v.1.12,2013-12-27 01:23:00,
2013-12-26 20:24:00,26.8,17.0,30.36,NNE,23,2.0,10.0,66,0.00,,,0.00,Wunderground v.1.12,2013-12-27 01:24:00,
2013-12-26 20:25:00,26.8,17.0,30.36,East,86,3.0,4.0,66,0.00,,,0.00,Wunderground v.1.12,2013-12-27 01:25:00,
2013-12-26 20:27:00,26.8,17.0,30.36,NE,39,4.0,10.0,66,0.00,,,0.00,Wunderground v.1.12,2013-12-27 01:27:00,
2013-12-26 20:28:00,26.7,16.9,30.36,NW,315,1.0,10.0,66,0.00,,,0.00,Wunderground v.1.12,2013-12-27 01:28:00,
2013-12-26 20:29:00,26.7,16.9,30.36,North,9,3.0,10.0,66,0.00,,,0.00,Wunderground v.1.12,2013-12-27 01:29:00,
2013-12-26 20:30:00,26.7,16.9,30.36,NE,55,2.0,6.0,66,0.00,,,0.00,Wunderground v.1.12,2013-12-27 01:30:00,
2013-12-26 20:32:00,26.7,16.9,30.36,WSW,240,2.0,11.0,66,0.00,,,0.00,Wunderground v.1.12,2013-12-27 01:32:00,
2013-12-26 20:33:00,26.7,16.9,30.36,NNW,342,5.0,11.0,66,0.00,,,0.00,Wunderground v.1.12,2013-12-27 01:33:00,
2013-12-26 20:34:00,26.7,16.9,30.36,NW,312,1.0,11.0,66,0.00,,,0.00,Wunderground v.1.12,2013-12-27 01:34:00,
2013-12-26 20:35:00,26.7,16.9,30.36,WNW,296,0.0,4.0,66,0.00,,,0.00,Wunderground v.1.12,2013-12-27 01:35:00,
2013-12-26 20:37:00,26.6,16.8,30.36,ENE,61,4.0,6.0,66,0.00,,,0.00,Wunderground v.1.12,2013-12-27 01:37:00,
2013-12-26 20:38:00,26.6,16.8,30.36,NW,316,6.0,10.0,66,0.00,,,0.00,Wunderground v.1.12,2013-12-27 01:38:00,
2013-12-26 20:39:00,26.6,16.8,30.36,NNW,334,6.0,12.0,66,0.00,,,0.00,Wunderground v.1.12,2013-12-27 01:39:00,
2013-12-26 20:40:00,26.6,16.8,30.36,NE,53,1.0,4.0,66,0.00,,,0.00,Wunderground v.1.12,2013-12-27 01:40:00,
2013-12-26 20:42:00,26.6,16.8,30.37,ENE,63,4.0,8.0,66,0.00,,,0.00,Wunderground v.1.12,2013-12-27 01:42:00,
2013-12-26 20:43:00,26.5,16.7,30.37,NE,53,0.0,8.0,66,0.00,,,0.00,Wunderground v.1.12,2013-12-27 01:43:00,
2013-12-26 20:44:00,26.5,16.7,30.37,NE,44,4.0,8.0,66,0.00,,,0.00,Wunderground v.1.12,2013-12-27 01:44:00,
2013-12-26 20:45:00,26.5,16.7,30.37,NE,44,2.0,8.0,66,0.00,,,0.00,Wunderground v.1.12,2013-12-27 01:45:00,
2013-12-26 20:47:00,26.4,16.6,30.37,WNW,290,0.0,5.0,66,0.00,,,0.00,Wunderground v.1.12,2013-12-27 01:47:00,
2013-12-26 20:48:00,26.4,16.6,30.37,ENE,77,4.0,5.0,66,0.00,,,0.00,Wunderground v.1.12,2013-12-27 01:48:00,
2013-12-26 20:49:00,26.3,16.8,30.37,NW,323,7.0,13.0,67,0.00,,,0.00,Wunderground v.1.12,2013-12-27 01:49:00,
2013-12-26 20:50:00,26.3,16.8,30.37,NNW,346,11.0,11.0,67,0.00,,,0.00,Wunderground v.1.12,2013-12-27 01:50:00,
2013-12-26 20:51:00,26.4,16.6,30.37,North,1,1.0,11.0,66,0.00,,,0.00,Wunderground v.1.12,2013-12-27 01:51:00,
2013-12-26 20:52:00,26.4,16.6,30.37,NNE,27,7.0,11.0,66,0.00,,,0.00,Wunderground v.1.12,2013-12-27 01:52:00,
2013-12-26 20:53:00,26.4,16.6,30.37,NE,39,5.0,11.0,66,0.00,,,0.00,Wunderground v.1.12,2013-12-27 01:53:00,
2013-12-26 20:54:00,26.4,16.6,30.37,WNW,297,5.0,18.0,66,0.00,,,0.00,Wunderground v.1.12,2013-12-27 01:54:00,
2013-12-26 20:55:00,26.4,16.6,30.37,West,266,3.0,6.0,66,0.00,,,0.00,Wunderground v.1.12,2013-12-27 01:55:00,
2013-12-26 20:56:00,26.4,16.6,30.37,NNW,332,5.0,6.0,66,0.00,,,0.00,Wunderground v.1.12,2013-12-27 01:56:00,
2013-12-26 20:58:00,26.4,16.6,30.37,NW,314,3.0,9.0,66,0.00,,,0.00,Wunderground v.1.12,2013-12-27 01:58:00,
2013-12-26 21:00:00,26.4,16.6,30.38,North,352,3.0,12.0,66,0.00,,,0.00,Wunderground v.1.12,2013-12-27 02:00:00,
2013-12-26 21:01:00,26.4,16.6,30.38,NE,43,4.0,8.0,66,0.00,,,0.00,Wunderground v.1.12,2013-12-27 02:01:00,
2013-12-26 21:03:00,26.3,16.5,30.37,NNE,32,6.0,10.0,66,0.00,,,0.00,Wunderground v.1.12,2013-12-27 02:03:00,
2013-12-26 21:05:00,26.3,16.1,30.38,NW,314,4.0,8.0,65,0.00,,,0.00,Wunderground v.1.12,2013-12-27 02:05:00,
2013-12-26 21:06:00,26.3,16.1,30.38,NNE,13,3.0,8.0,65,0.00,,,0.00,Wunderground v.1.12,2013-12-27 02:06:00,
2013-12-26 21:08:00,26.2,16.0,30.38,NW,308,2.0,10.0,65,0.00,,,0.00,Wunderground v.1.12,2013-12-27 02:08:00,
2013-12-26 21:10:00,26.2,16.0,30.38,North,356,8.0,8.0,65,0.00,,,0.00,Wunderground v.1.12,2013-12-27 02:10:00,
2013-12-26 21:11:00,26.1,15.9,30.38,NNW,330,2.0,12.0,65,0.00,,,0.00,Wunderground v.1.12,2013-12-27 02:11:00,
2013-12-26 21:13:00,26.1,15.9,30.38,North,352,3.0,15.0,65,0.00,,,0.00,Wunderground v.1.12,2013-12-27 02:13:00,
2013-12-26 21:15:00,26.1,16.3,30.38,ENE,61,2.0,5.0,66,0.00,,,0.00,Wunderground v.1.12,2013-12-27 02:15:00,
2013-12-26 21:16:00,26.1,16.3,30.38,NNW,328,1.0,5.0,66,0.00,,,0.00,Wunderground v.1.12,2013-12-27 02:16:00,
2013-12-26 21:18:00,26.0,15.8,30.38,WNW,302,3.0,16.0,65,0.00,,,0.00,Wunderground v.1.12,2013-12-27 02:18:00,
2013-12-26 21:20:00,26.0,15.8,30.38,NNE,25,9.0,9.0,65,0.00,,,0.00,Wunderground v.1.12,2013-12-27 02:20:00,
2013-12-26 21:21:00,26.0,15.8,30.38,NNE,15,3.0,9.0,65,0.00,,,0.00,Wunderground v.1.12,2013-12-27 02:21:00,
2013-12-26 21:23:00,26.1,15.2,30.38,NE,39,6.0,16.0,63,0.00,,,0.00,Wunderground v.1.12,2013-12-27 02:23:00,
2013-12-26 21:24:00,26.1,15.2,30.38,NNW,332,8.0,16.0,63,0.00,,,0.00,Wunderground v.1.12,2013-12-27 02:24:00,
2013-12-26 21:25:00,26.0,15.1,30.38,NE,41,6.0,10.0,63,0.00,,,0.00,Wunderground v.1.12,2013-12-27 02:25:00,
2013-12-26 21:26:00,26.0,15.1,30.38,North,1,3.0,11.0,63,0.00,,,0.00,Wunderground v.1.12,2013-12-27 02:26:00,
2013-12-26 21:27:00,26.0,15.1,30.38,NE,39,7.0,11.0,63,0.00,,,0.00,Wunderground v.1.12,2013-12-27 02:27:00,
2013-12-26 21:29:00,26.0,15.1,30.38,NNW,345,4.0,12.0,63,0.00,,,0.00,Wunderground v.1.12,2013-12-27 02:29:00,
2013-12-26 21:31:00,25.9,15.0,30.38,NE,37,7.0,12.0,63,0.00,,,0.00,Wunderground v.1.12,2013-12-27 02:31:00,
2013-12-26 21:32:00,25.9,15.0,30.39,NNW,347,8.0,12.0,63,0.00,,,0.00,Wunderground v.1.12,2013-12-27 02:32:00,
2013-12-26 21:34:00,25.9,15.0,30.39,NNW,347,4.0,12.0,63,0.00,,,0.00,Wunderground v.1.12,2013-12-27 02:34:00,
2013-12-26 21:36:00,25.9,14.7,30.39,NE,37,8.0,17.0,62,0.00,,,0.00,Wunderground v.1.12,2013-12-27 02:36:00,
2013-12-26 21:38:00,25.9,14.7,30.39,West,264,1.0,17.0,62,0.00,,,0.00,Wunderground v.1.12,2013-12-27 02:38:00,
2013-12-26 21:39:00,25.9,14.7,30.39,WNW,297,3.0,17.0,62,0.00,,,0.00,Wunderground v.1.12,2013-12-27 02:39:00,
2013-12-26 21:41:00,25.8,14.6,30.39,NNW,333,2.0,9.0,62,0.00,,,0.00,Wunderground v.1.12,2013-12-27 02:41:00,
2013-12-26 21:42:00,25.8,14.6,30.39,North,352,4.0,9.0,62,0.00,,,0.00,Wunderground v.1.12,2013-12-27 02:42:00,
2013-12-26 21:43:00,25.8,14.9,30.39,South,170,0.0,9.0,63,0.00,,,0.00,Wunderground v.1.12,2013-12-27 02:43:00,
2013-12-26 21:44:00,25.7,14.8,30.39,WSW,249,5.0,13.0,63,0.00,,,0.00,Wunderground v.1.12,2013-12-27 02:44:00,
2013-12-26 21:46:00,25.7,14.8,30.39,WNW,283,2.0,11.0,63,0.00,,,0.00,Wunderground v.1.12,2013-12-27 02:46:00,
2013-12-26 21:47:00,25.7,14.8,30.39,North,350,9.0,11.0,63,0.00,,,0.00,Wunderground v.1.12,2013-12-27 02:47:00,
2013-12-26 21:48:00,25.7,15.2,30.39,North,351,2.0,11.0,64,0.00,,,0.00,Wunderground v.1.12,2013-12-27 02:48:00,
2013-12-26 21:49:00,25.7,15.2,30.39,WNW,297,0.0,11.0,64,0.00,,,0.00,Wunderground v.1.12,2013-12-27 02:49:00,
2013-12-26 21:51:00,25.6,15.1,30.39,NNW,342,8.0,8.0,64,0.00,,,0.00,Wunderground v.1.12,2013-12-27 02:51:00,
2013-12-26 21:52:00,25.6,15.1,30.39,North,11,2.0,8.0,64,0.00,,,0.00,Wunderground v.1.12,2013-12-27 02:52:00,
2013-12-26 21:53:00,25.5,15.4,30.39,NNE,15,1.0,8.0,65,0.00,,,0.00,Wunderground v.1.12,2013-12-27 02:53:00,
2013-12-26 21:54:00,25.5,15.4,30.39,NNE,32,2.0,8.0,65,0.00,,,0.00,Wunderground v.1.12,2013-12-27 02:54:00,
2013-12-26 21:55:00,25.5,15.4,30.39,North,352,6.0,8.0,65,0.00,,,0.00,Wunderground v.1.12,2013-12-27 02:55:00,
2013-12-26 21:57:00,25.4,15.3,30.39,NNW,339,1.0,15.0,65,0.00,,,0.00,Wunderground v.1.12,2013-12-27 02:57:00,
2013-12-26 21:59:00,25.4,15.3,30.39,North,360,14.0,15.0,65,0.00,,,0.00,Wunderground v.1.12,2013-12-27 02:59:00,
2013-12-26 22:00:00,25.5,15.4,30.39,West,281,2.0,15.0,65,0.00,,,0.00,Wunderground v.1.12,2013-12-27 03:00:00,
2013-12-26 22:02:00,25.4,15.3,30.40,NNE,13,2.0,10.0,65,0.00,,,0.00,Wunderground v.1.12,2013-12-27 03:02:00,
2013-12-26 22:04:00,25.4,15.3,30.39,NE,41,3.0,10.0,65,0.00,,,0.00,Wunderground v.1.12,2013-12-27 03:04:00,
2013-12-26 22:05:00,25.3,15.2,30.39,NNW,347,8.0,12.0,65,0.00,,,0.00,Wunderground v.1.12,2013-12-27 03:05:00,
2013-12-26 22:07:00,25.3,15.5,30.40,NNW,340,5.0,9.0,66,0.00,,,0.00,Wunderground v.1.12,2013-12-27 03:07:00,
2013-12-26 22:08:00,25.3,15.5,30.40,NNW,342,3.0,9.0,66,0.00,,,0.00,Wunderground v.1.12,2013-12-27 03:08:00,
2013-12-26 22:09:00,25.3,15.5,30.40,NE,39,4.0,9.0,66,0.00,,,0.00,Wunderground v.1.12,2013-12-27 03:09:00,
2013-12-26 22:10:00,25.2,15.4,30.40,West,277,2.0,3.0,66,0.00,,,0.00,Wunderground v.1.12,2013-12-27 03:10:00,
2013-12-26 22:12:00,25.1,15.3,30.40,WSW,256,4.0,7.0,66,0.00,,,0.00,Wunderground v.1.12,2013-12-27 03:12:00,
2013-12-26 22:13:00,25.1,15.3,30.40,North,5,7.0,11.0,66,0.00,,,0.00,Wunderground v.1.12,2013-12-27 03:13:00,
2013-12-26 22:14:00,25.1,15.3,30.40,NNE,16,2.0,11.0,66,0.00,,,0.00,Wunderground v.1.12,2013-12-27 03:14:00,
2013-12-26 22:15:00,25.1,15.3,30.40,North,6,2.0,4.0,66,0.00,,,0.00,Wunderground v.1.12,2013-12-27 03:15:00,
2013-12-26 22:18:00,25.0,15.6,30.40,NNE,16,3.0,10.0,67,0.00,,,0.00,Wunderground v.1.12,2013-12-27 03:18:00,
2013-12-26 22:19:00,25.0,15.6,30.40,NW,304,2.0,10.0,67,0.00,,,0.00,Wunderground v.1.12,2013-12-27 03:19:00,
2013-12-26 22:20:00,24.9,15.5,30.40,NNE,27,1.0,4.0,67,0.00,,,0.00,Wunderground v.1.12,2013-12-27 03:20:00,
2013-12-26 22:23:00,24.9,15.8,30.40,NW,316,3.0,9.0,68,0.00,,,0.00,Wunderground v.1.12,2013-12-27 03:23:00,
2013-12-26 22:24:00,24.8,15.7,30.40,WNW,302,2.0,9.0,68,0.00,,,0.00,Wunderground v.1.12,2013-12-27 03:24:00,
2013-12-26 22:25:00,24.8,15.7,30.40,NNE,32,3.0,3.0,68,0.00,,,0.00,Wunderground v.1.12,2013-12-27 03:25:00,
2013-12-26 22:28:00,24.7,15.6,30.40,NW,314,1.0,9.0,68,0.00,,,0.00,Wunderground v.1.12,2013-12-27 03:28:00,
2013-12-26 22:29:00,24.7,15.6,30.40,WNW,294,4.0,9.0,68,0.00,,,0.00,Wunderground v.1.12,2013-12-27 03:29:00,
2013-12-26 22:30:00,24.7,15.6,30.40,NE,39,1.0,3.0,68,0.00,,,0.00,Wunderground v.1.12,2013-12-27 03:30:00,
2013-12-26 22:33:00,24.7,15.6,30.40,NE,51,7.0,12.0,68,0.00,,,0.00,Wunderground v.1.12,2013-12-27 03:33:00,
2013-12-26 22:35:00,24.7,15.6,30.40,NE,44,2.0,13.0,68,0.00,,,0.00,Wunderground v.1.12,2013-12-27 03:35:00,
2013-12-26 22:38:00,24.6,15.5,30.40,ENE,68,1.0,6.0,68,0.00,,,0.00,Wunderground v.1.12,2013-12-27 03:38:00,
2013-12-26 22:40:00,24.6,15.9,30.40,North,6,2.0,6.0,69,0.00,,,0.00,Wunderground v.1.12,2013-12-27 03:40:00,
2013-12-26 22:41:00,24.5,15.8,30.40,ENE,75,0.0,3.0,69,0.00,,,0.00,Wunderground v.1.12,2013-12-27 03:41:00,
2013-12-26 22:44:00,24.4,15.7,30.40,NNE,27,1.0,8.0,69,0.00,,,0.00,Wunderground v.1.12,2013-12-27 03:44:00,
2013-12-26 22:45:00,24.4,15.7,30.40,NNE,33,4.0,4.0,69,0.00,,,0.00,Wunderground v.1.12,2013-12-27 03:45:00,
2013-12-26 22:46:00,24.4,15.7,30.40,NNE,27,3.0,4.0,69,0.00,,,0.00,Wunderground v.1.12,2013-12-27 03:46:00,
2013-12-26 22:49:00,24.3,15.6,30.40,SE,138,0.0,4.0,69,0.00,,,0.00,Wunderground v.1.12,2013-12-27 03:49:00,
2013-12-26 22:50:00,24.2,15.5,30.40,NNE,15,3.0,3.0,69,0.00,,,0.00,Wunderground v.1.12,2013-12-27 03:50:00,
2013-12-26 22:51:00,24.2,15.5,30.40,NE,40,1.0,6.0,69,0.00,,,0.00,Wunderground v.1.12,2013-12-27 03:51:00,
2013-12-26 22:52:00,24.1,15.7,30.40,ENE,57,2.0,9.0,70,0.00,,,0.00,Wunderground v.1.12,2013-12-27 03:52:00,
2013-12-26 22:54:00,24.0,15.6,30.40,NNE,23,1.0,9.0,70,0.00,,,0.00,Wunderground v.1.12,2013-12-27 03:54:00,
2013-12-26 22:55:00,24.0,15.6,30.40,North,360,5.0,5.0,70,0.00,,,0.00,Wunderground v.1.12,2013-12-27 03:55:00,
2013-12-26 22:56:00,24.0,15.6,30.40,NNE,19,6.0,8.0,70,0.00,,,0.00,Wunderground v.1.12,2013-12-27 03:56:00,
2013-12-26 22:57:00,24.0,15.6,30.40,NE,40,2.0,8.0,70,0.00,,,0.00,Wunderground v.1.12,2013-12-27 03:57:00,
2013-12-26 22:59:00,24.0,15.6,30.40,NNW,333,4.0,8.0,70,0.00,,,0.00,Wunderground v.1.12,2013-12-27 03:59:00,
2013-12-26 23:00:00,23.9,15.5,30.40,North,1,0.0,2.0,70,0.00,,,0.00,Wunderground v.1.12,2013-12-27 04:00:00,
2013-12-26 23:01:00,23.9,15.5,30.41,North,4,2.0,3.0,70,0.00,,,0.00,Wunderground v.1.12,2013-12-27 04:01:00,
2013-12-26 23:02:00,23.9,15.5,30.40,WSW,256,2.0,5.0,70,0.00,,,0.00,Wunderground v.1.12,2013-12-27 04:02:00,
2013-12-26 23:04:00,23.8,15.4,30.41,ENE,70,0.0,5.0,70,0.00,,,0.00,Wunderground v.1.12,2013-12-27 04:04:00,
2013-12-26 23:05:00,23.8,15.4,30.41,NNE,20,5.0,7.0,70,0.00,,,0.00,Wunderground v.1.12,2013-12-27 04:05:00,
2013-12-26 23:06:00,23.8,15.4,30.41,North,354,0.0,7.0,70,0.00,,,0.00,Wunderground v.1.12,2013-12-27 04:06:00,
2013-12-26 23:07:00,23.8,15.4,30.41,NNE,19,2.0,7.0,70,0.00,,,0.00,Wunderground v.1.12,2013-12-27 04:07:00,
2013-12-26 23:09:00,23.8,15.4,30.41,NNW,344,5.0,7.0,70,0.00,,,0.00,Wunderground v.1.12,2013-12-27 04:09:00,
2013-12-26 23:10:00,23.8,15.4,30.41,NE,37,3.0,3.0,70,0.00,,,0.00,Wunderground v.1.12,2013-12-27 04:10:00,
2013-12-26 23:11:00,23.8,15.4,30.41,ENE,63,5.0,5.0,70,0.00,,,0.00,Wunderground v.1.12,2013-12-27 04:11:00,
2013-12-26 23:12:00,23.8,15.4,30.41,North,354,3.0,5.0,70,0.00,,,0.00,Wunderground v.1.12,2013-12-27 04:12:00,
2013-12-26 23:14:00,23.8,15.4,30.41,North,1,5.0,8.0,70,0.00,,,0.00,Wunderground v.1.12,2013-12-27 04:14:00,
2013-12-26 23:15:00,23.8,15.1,30.41,North,349,2.0,8.0,69,0.00,,,0.00,Wunderground v.1.12,2013-12-27 04:15:00,
2013-12-26 23:16:00,23.8,15.1,30.41,NNE,27,2.0,8.0,69,0.00,,,0.00,Wunderground v.1.12,2013-12-27 04:16:00,
2013-12-26 23:18:00,23.8,15.1,30.41,NE,34,1.0,8.0,69,0.00,,,0.00,Wunderground v.1.12,2013-12-27 04:18:00,
2013-12-26 23:19:00,23.7,15.0,30.41,North,9,6.0,8.0,69,0.00,,,0.00,Wunderground v.1.12,2013-12-27 04:19:00,
2013-12-26 23:20:00,23.7,15.0,30.41,NW,323,1.0,2.0,69,0.00,,,0.00,Wunderground v.1.12,2013-12-27 04:20:00,
2013-12-26 23:21:00,23.7,15.0,30.41,NE,44,2.0,5.0,69,0.00,,,0.00,Wunderground v.1.12,2013-12-27 04:21:00,
2013-12-26 23:23:00,23.7,15.0,30.41,West,271,0.0,5.0,69,0.00,,,0.00,Wunderground v.1.12,2013-12-27 04:23:00,
2013-12-26 23:24:00,23.7,15.0,30.41,NE,47,1.0,5.0,69,0.00,,,0.00,Wunderground v.1.12,2013-12-27 04:24:00,
2013-12-26 23:25:00,23.7,15.0,30.41,NNE,13,2.0,9.0,69,0.00,,,0.00,Wunderground v.1.12,2013-12-27 04:25:00,
2013-12-26 23:26:00,23.6,14.9,30.41,NNE,12,1.0,9.0,69,0.00,,,0.00,Wunderground v.1.12,2013-12-27 04:26:00,
2013-12-26 23:28:00,23.6,14.9,30.41,NNE,13,4.0,9.0,69,0.00,,,0.00,Wunderground v.1.12,2013-12-27 04:28:00,
2013-12-26 23:29:00,23.6,14.9,30.41,WSW,249,0.0,9.0,69,0.00,,,0.00,Wunderground v.1.12,2013-12-27 04:29:00,
2013-12-26 23:31:00,23.5,14.8,30.41,NE,48,0.0,2.0,69,0.00,,,0.00,Wunderground v.1.12,2013-12-27 04:31:00,
2013-12-26 23:33:00,23.5,14.8,30.41,WNW,302,1.0,6.0,69,0.00,,,0.00,Wunderground v.1.12,2013-12-27 04:33:00,
2013-12-26 23:35:00,23.5,14.8,30.41,NNE,30,4.0,6.0,69,0.00,,,0.00,Wunderground v.1.12,2013-12-27 04:35:00,
2013-12-26 23:36:00,23.5,14.8,30.41,West,270,0.0,5.0,69,0.00,,,0.00,Wunderground v.1.12,2013-12-27 04:36:00,
2013-12-26 23:38:00,23.5,14.8,30.41,North,359,1.0,6.0,69,0.00,,,0.00,Wunderground v.1.12,2013-12-27 04:38:00,
2013-12-26 23:41:00,23.5,14.8,30.41,North,6,2.0,3.0,69,0.00,,,0.00,Wunderground v.1.12,2013-12-27 04:41:00,
2013-12-26 23:43:00,23.4,14.7,30.41,NE,43,0.0,3.0,69,0.00,,,0.00,Wunderground v.1.12,2013-12-27 04:43:00,
2013-12-26 23:46:00,23.2,14.5,30.41,NNW,342,2.0,4.0,69,0.00,,,0.00,Wunderground v.1.12,2013-12-27 04:46:00,
2013-12-26 23:48:00,23.2,14.9,30.41,NW,309,0.0,4.0,70,0.00,,,0.00,Wunderground v.1.12,2013-12-27 04:48:00,
2013-12-26 23:51:00,23.1,14.8,30.41,ENE,67,2.0,2.0,70,0.00,,,0.00,Wunderground v.1.12,2013-12-27 04:51:00,
2013-12-26 23:52:00,23.1,14.8,30.41,ENE,67,0.0,2.0,70,0.00,,,0.00,Wunderground v.1.12,2013-12-27 04:52:00,
2013-12-26 23:53:00,23.1,14.8,30.41,North,11,0.0,2.0,70,0.00,,,0.00,Wunderground v.1.12,2013-12-27 04:53:00,
2013-12-26 23:56:00,23.0,14.7,30.41,West,277,2.0,4.0,70,0.00,,,0.00,Wunderground v.1.12,2013-12-27 04:56:00,
2013-12-26 23:57:00,23.0,14.7,30.41,NNE,30,0.0,4.0,70,0.00,,,0.00,Wunderground v.1.12,2013-12-27 04:57:00,
2013-12-26 23:58:00,23.0,14.7,30.41,North,4,2.0,4.0,70,0.00,,,0.00,Wunderground v.1.12,2013-12-27 04:58:00,